Wetterdaten: Montag, 10.02.2014
Datum Zeit Temp. Aussen +5cm Feuchte Auss Luftdruck Regen Sonnenschein Regendauer UV Solar Windben
10.02.2014 00:00 5,4 C 3,9 C 78 % 996,8 hPa 0,0 l/m 0 min 0 min 0,0 UV-I 0 W/m 28,3 km/h (4 Bft)
10.02.2014 00:02 5,5 C 3,9 C 79 % 996,7 hPa 0,0 l/m 0 min 0 min 0,0 UV-I 0 W/m 10,3 km/h (2 Bft)
10.02.2014 00:04 5,5 C 3,9 C 79 % 996,8 hPa 0,0 l/m 0 min 0 min 0,0 UV-I 0 W/m 10,3 km/h (2 Bft)
10.02.2014 00:06 5,5 C 3,9 C 79 % 996,9 hPa 0,0 l/m 0 min 0 min 0,0 UV-I 0 W/m 15,4 km/h (3 Bft)
10.02.2014 00:08 5,5 C 3,9 C 79 % 996,9 hPa 0,0 l/m 0 min 0 min 0,0 UV-I 0 W/m 20,6 km/h (4 Bft)
10.02.2014 00:10 5,6 C 3,9 C 79 % 996,9 hPa 0,0 l/m 0 min 0 min 0,0 UV-I 0 W/m 12,9 km/h (3 Bft)
10.02.2014 00:12 5,6 C 3,9 C 79 % 996,9 hPa 0,0 l/m 0 min 0 min 0,0 UV-I 0 W/m 7,7 km/h (2 Bft)
10.02.2014 00:14 5,5 C 3,9 C 79 % 996,9 hPa 0,0 l/m 0 min 0 min 0,0 UV-I 0 W/m 10,3 km/h (2 Bft)
10.02.2014 00:16 5,6 C 3,9 C 79 % 996,9 hPa 0,0 l/m 0 min 0 min 0,0 UV-I 0 W/m 7,7 km/h (2 Bft)
10.02.2014 00:18 5,5 C 3,9 C 79 % 996,9 hPa 0,0 l/m 0 min 0 min 0,0 UV-I 0 W/m 7,7 km/h (2 Bft)
10.02.2014 00:20 5,6 C 3,9 C 79 % 997,0 hPa 0,0 l/m 0 min 0 min 0,0 UV-I 0 W/m 18,0 km/h (3 Bft)
10.02.2014 00:22 5,5 C 3,9 C 79 % 997,0 hPa 0,0 l/m 0 min 0 min 0,0 UV-I 0 W/m 5,1 km/h (1 Bft)
10.02.2014 00:24 5,5 C 3,9 C 79 % 996,9 hPa 0,0 l/m 0 min 0 min 0,0 UV-I 0 W/m 7,7 km/h (2 Bft)
10.02.2014 00:26 5,5 C 3,9 C 79 % 997,1 hPa 0,0 l/m 0 min 0 min 0,0 UV-I 0 W/m 20,6 km/h (4 Bft)
10.02.2014 00:28 5,5 C 3,9 C 79 % 997,1 hPa 0,0 l/m 0 min 0 min 0,0 UV-I 0 W/m 0,0 km/h (0 Bft)
10.02.2014 00:30 5,5 C 3,3 C 79 % 997,1 hPa 0,0 l/m 0 min 0 min 0,0 UV-I 0 W/m 0,0 km/h (0 Bft)
10.02.2014 00:32 5,5 C 3,3 C 79 % 997,1 hPa 0,0 l/m 0 min 0 min 0,0 UV-I 0 W/m 7,7 km/h (2 Bft)
10.02.2014 00:34 5,4 C 3,3 C 79 % 997,1 hPa 0,0 l/m 0 min 0 min 0,0 UV-I 0 W/m 23,2 km/h (4 Bft)
10.02.2014 00:36 5,4 C 3,3 C 79 % 997,1 hPa 0,0 l/m 0 min 0 min 0,0 UV-I 0 W/m 15,4 km/h (3 Bft)
10.02.2014 00:38 5,4 C 3,3 C 79 % 997,1 hPa 0,0 l/m 0 min 0 min 0,0 UV-I 0 W/m 0,0 km/h (0 Bft)
10.02.2014 00:40 5,4 C 3,3 C 79 % 997,1 hPa 0,0 l/m 0 min 0 min 0,0 UV-I 0 W/m 2,6 km/h (1 Bft)
10.02.2014 00:42 5,4 C 3,3 C 79 % 997,1 hPa 0,0 l/m 0 min 0 min 0,0 UV-I 0 W/m 0,0 km/h (0 Bft)
10.02.2014 00:44 5,4 C 3,3 C 79 % 997,1 hPa 0,0 l/m 0 min 0 min 0,0 UV-I 0 W/m 10,3 km/h (2 Bft)
10.02.2014 00:46 5,3 C 3,3 C 79 % 997,1 hPa 0,0 l/m 0 min 0 min 0,0 UV-I 0 W/m 7,7 km/h (2 Bft)
10.02.2014 00:48 5,3 C 3,3 C 79 % 997,1 hPa 0,0 l/m 0 min 0 min 0,0 UV-I 0 W/m 12,9 km/h (3 Bft)
10.02.2014 00:50 5,3 C 3,3 C 79 % 997,2 hPa 0,0 l/m 0 min 0 min 0,0 UV-I 0 W/m 0,0 km/h (0 Bft)
10.02.2014 00:52 5,3 C 3,3 C 80 % 997,1 hPa 0,0 l/m 0 min 0 min 0,0 UV-I 0 W/m 0,0 km/h (0 Bft)
10.02.2014 00:54 5,2 C 3,3 C 80 % 997,1 hPa 0,0 l/m 0 min 0 min 0,0 UV-I 0 W/m 10,3 km/h (2 Bft)
10.02.2014 00:56 5,2 C 3,3 C 80 % 997,1 hPa 0,0 l/m 0 min 0 min 0,0 UV-I 0 W/m 15,4 km/h (3 Bft)
10.02.2014 00:58 5,2 C 3,3 C 80 % 997,1 hPa 0,0 l/m 0 min 0 min 0,0 UV-I 0 W/m 5,1 km/h (1 Bft)
10.02.2014 01:00 5,2 C 3,3 C 80 % 997,1 hPa 0,0 l/m 0 min 0 min 0,0 UV-I 0 W/m 7,7 km/h (2 Bft)
10.02.2014 01:02 5,1 C 3,3 C 80 % 997,1 hPa 0,0 l/m 0 min 0 min 0,0 UV-I 0 W/m 5,1 km/h (1 Bft)
10.02.2014 01:04 5,1 C 2,8 C 80 % 997,1 hPa 0,0 l/m 0 min 0 min 0,0 UV-I 0 W/m 2,6 km/h (1 Bft)
10.02.2014 01:06 5,1 C 3,3 C 80 % 997,1 hPa 0,0 l/m 0 min 0 min 0,0 UV-I 0 W/m 5,1 km/h (1 Bft)
10.02.2014 01:08 5,1 C 3,3 C 81 % 997,0 hPa 0,0 l/m 0 min 0 min 0,0 UV-I 0 W/m 0,0 km/h (0 Bft)
10.02.2014 01:10 5,1 C 2,8 C 81 % 997,1 hPa 0,0 l/m 0 min 0 min 0,0 UV-I 0 W/m 5,1 km/h (1 Bft)
10.02.2014 01:12 5,0 C 2,8 C 81 % 997,1 hPa 0,0 l/m 0 min 0 min 0,0 UV-I 0 W/m 0,0 km/h (0 Bft)
10.02.2014 01:14 5,0 C 2,8 C 81 % 997,1 hPa 0,0 l/m 0 min 0 min 0,0 UV-I 0 W/m 7,7 km/h (2 Bft)
10.02.2014 01:16 5,0 C 3,3 C 81 % 997,1 hPa 0,0 l/m 0 min 0 min 0,0 UV-I 0 W/m 5,1 km/h (1 Bft)
10.02.2014 01:18 4,9 C 3,3 C 81 % 997,1 hPa 0,0 l/m 0 min 0 min 0,0 UV-I 0 W/m 2,6 km/h (1 Bft)
10.02.2014 01:20 4,9 C 3,3 C 81 % 997,1 hPa 0,0 l/m 0 min 0 min 0,0 UV-I 0 W/m 7,7 km/h (2 Bft)
10.02.2014 01:22 4,9 C 2,8 C 81 % 997,1 hPa 0,0 l/m 0 min 0 min 0,0 UV-I 0 W/m 0,0 km/h (0 Bft)
10.02.2014 01:24 4,9 C 2,8 C 81 % 997,1 hPa 0,0 l/m 0 min 0 min 0,0 UV-I 0 W/m 0,0 km/h (0 Bft)
10.02.2014 01:26 4,9 C 2,8 C 81 % 997,0 hPa 0,0 l/m 0 min 0 min 0,0 UV-I 0 W/m 10,3 km/h (2 Bft)
10.02.2014 01:28 4,9 C 2,8 C 81 % 997,0 hPa 0,0 l/m 0 min 0 min 0,0 UV-I 0 W/m 5,1 km/h (1 Bft)
10.02.2014 01:30 4,9 C 3,3 C 82 % 997,0 hPa 0,0 l/m 0 min 0 min 0,0 UV-I 0 W/m 2,6 km/h (1 Bft)
10.02.2014 01:32 4,9 C 3,3 C 82 % 996,9 hPa 0,0 l/m 0 min 0 min 0,0 UV-I 0 W/m 2,6 km/h (1 Bft)
10.02.2014 01:34 4,9 C 3,3 C 82 % 996,9 hPa 0,0 l/m 0 min 0 min 0,0 UV-I 0 W/m 0,0 km/h (0 Bft)
10.02.2014 01:36 4,8 C 3,3 C 82 % 996,8 hPa 0,0 l/m 0 min 0 min 0,0 UV-I 0 W/m 0,0 km/h (0 Bft)
10.02.2014 01:38 4,8 C 2,8 C 82 % 996,8 hPa 0,0 l/m 0 min 0 min 0,0 UV-I 0 W/m 2,6 km/h (1 Bft)
10.02.2014 01:40 4,8 C 2,8 C 82 % 996,8 hPa 0,0 l/m 0 min 0 min 0,0 UV-I 0 W/m 7,7 km/h (2 Bft)
10.02.2014 01:42 4,8 C 2,8 C 82 % 996,9 hPa 0,0 l/m 0 min 0 min 0,0 UV-I 0 W/m 0,0 km/h (0 Bft)
10.02.2014 01:44 4,8 C 2,8 C 82 % 996,9 hPa 0,0 l/m 0 min 0 min 0,0 UV-I 0 W/m 0,0 km/h (0 Bft)
10.02.2014 01:46 4,8 C 2,8 C 82 % 996,9 hPa 0,0 l/m 0 min 0 min 0,0 UV-I 0 W/m 2,6 km/h (1 Bft)
10.02.2014 01:48 4,8 C 2,8 C 82 % 996,8 hPa 0,0 l/m 0 min 0 min 0,0 UV-I 0 W/m 10,3 km/h (2 Bft)
10.02.2014 01:50 4,8 C 2,8 C 82 % 996,8 hPa 0,0 l/m 0 min 0 min 0,0 UV-I 0 W/m 0,0 km/h (0 Bft)
10.02.2014 01:52 4,8 C 2,8 C 82 % 996,8 hPa 0,0 l/m 0 min 0 min 0,0 UV-I 0 W/m 0,0 km/h (0 Bft)
10.02.2014 01:54 4,8 C 2,8 C 82 % 996,8 hPa 0,0 l/m 0 min 0 min 0,0 UV-I 0 W/m 0,0 km/h (0 Bft)
10.02.2014 01:56 4,7 C 2,8 C 82 % 996,7 hPa 0,0 l/m 0 min 0 min 0,0 UV-I 0 W/m 0,0 km/h (0 Bft)
10.02.2014 01:58 4,7 C 2,8 C 82 % 996,8 hPa 0,0 l/m 0 min 0 min 0,0 UV-I 0 W/m 2,6 km/h (1 Bft)
10.02.2014 02:00 4,7 C 2,8 C 82 % 996,7 hPa 0,0 l/m 0 min 0 min 0,0 UV-I 0 W/m 0,0 km/h (0 Bft)
10.02.2014 02:02 4,7 C 2,2 C 82 % 996,6 hPa 0,0 l/m 0 min 0 min 0,0 UV-I 0 W/m 2,6 km/h (1 Bft)
10.02.2014 02:04 4,6 C 2,2 C 83 % 996,7 hPa 0,0 l/m 0 min 0 min 0,0 UV-I 0 W/m 0,0 km/h (0 Bft)
10.02.2014 02:06 4,6 C 2,2 C 83 % 996,7 hPa 0,0 l/m 0 min 0 min 0,0 UV-I 0 W/m 5,1 km/h (1 Bft)
10.02.2014 02:08 4,6 C 2,2 C 83 % 996,7 hPa 0,0 l/m 0 min 0 min 0,0 UV-I 0 W/m 0,0 km/h (0 Bft)
10.02.2014 02:10 4,5 C 1,7 C 83 % 996,7 hPa 0,0 l/m 0 min 0 min 0,0 UV-I 0 W/m 5,1 km/h (1 Bft)
10.02.2014 02:12 4,5 C 1,7 C 83 % 996,7 hPa 0,0 l/m 0 min 0 min 0,0 UV-I 0 W/m 0,0 km/h (0 Bft)
10.02.2014 02:14 4,4 C 1,7 C 83 % 996,7 hPa 0,0 l/m 0 min 0 min 0,0 UV-I 0 W/m 5,1 km/h (1 Bft)
10.02.2014 02:16 4,4 C 1,7 C 83 % 996,6 hPa 0,0 l/m 0 min 0 min 0,0 UV-I 0 W/m 2,6 km/h (1 Bft)
10.02.2014 02:18 4,4 C 1,7 C 83 % 996,6 hPa 0,0 l/m 0 min 0 min 0,0 UV-I 0 W/m 7,7 km/h (2 Bft)
10.02.2014 02:20 4,3 C 1,7 C 83 % 996,7 hPa 0,0 l/m 0 min 0 min 0,0 UV-I 0 W/m 7,7 km/h (2 Bft)
10.02.2014 02:22 4,3 C 1,7 C 83 % 996,7 hPa 0,0 l/m 0 min 0 min 0,0 UV-I 0 W/m 5,1 km/h (1 Bft)
10.02.2014 02:24 4,2 C 1,7 C 83 % 996,8 hPa 0,0 l/m 0 min 0 min 0,0 UV-I 0 W/m 2,6 km/h (1 Bft)
10.02.2014 02:26 4,2 C 1,7 C 84 % 996,7 hPa 0,0 l/m 0 min 0 min 0,0 UV-I 0 W/m 7,7 km/h (2 Bft)
10.02.2014 02:28 4,2 C 1,7 C 84 % 996,7 hPa 0,0 l/m 0 min 0 min 0,0 UV-I 0 W/m 7,7 km/h (2 Bft)
10.02.2014 02:30 4,1 C 1,7 C 84 % 996,7 hPa 0,0 l/m 0 min 0 min 0,0 UV-I 0 W/m 0,0 km/h (0 Bft)
10.02.2014 02:32 4,1 C 1,7 C 84 % 996,7 hPa 0,0 l/m 0 min 0 min 0,0 UV-I 0 W/m 2,6 km/h (1 Bft)
10.02.2014 02:34 4,1 C 1,7 C 84 % 996,7 hPa 0,0 l/m 0 min 0 min 0,0 UV-I 0 W/m 0,0 km/h (0 Bft)
10.02.2014 02:36 4,0 C 1,1 C 84 % 996,5 hPa 0,0 l/m 0 min 0 min 0,0 UV-I 0 W/m 0,0 km/h (0 Bft)
10.02.2014 02:38 4,0 C 1,1 C 84 % 996,5 hPa 0,0 l/m 0 min 0 min 0,0 UV-I 0 W/m 0,0 km/h (0 Bft)
10.02.2014 02:40 3,9 C 1,1 C 84 % 996,5 hPa 0,0 l/m 0 min 0 min 0,0 UV-I 0 W/m 0,0 km/h (0 Bft)
10.02.2014 02:42 3,9 C 1,1 C 84 % 996,4 hPa 0,0 l/m 0 min 0 min 0,0 UV-I 0 W/m 0,0 km/h (0 Bft)
10.02.2014 02:44 3,9 C 1,1 C 84 % 996,4 hPa 0,0 l/m 0 min 0 min 0,0 UV-I 0 W/m 0,0 km/h (0 Bft)
10.02.2014 02:46 3,8 C 1,1 C 85 % 996,3 hPa 0,0 l/m 0 min 0 min 0,0 UV-I 0 W/m 0,0 km/h (0 Bft)
10.02.2014 02:48 3,8 C 1,1 C 85 % 996,3 hPa 0,0 l/m 0 min 0 min 0,0 UV-I 0 W/m 0,0 km/h (0 Bft)
10.02.2014 02:50 3,7 C 1,1 C 85 % 996,2 hPa 0,0 l/m 0 min 0 min 0,0 UV-I 0 W/m 2,6 km/h (1 Bft)
10.02.2014 02:52 3,7 C 1,1 C 85 % 996,3 hPa 0,0 l/m 0 min 0 min 0,0 UV-I 0 W/m 7,7 km/h (2 Bft)
10.02.2014 02:54 3,7 C 1,1 C 85 % 996,2 hPa 0,0 l/m 0 min 0 min 0,0 UV-I 0 W/m 5,1 km/h (1 Bft)
10.02.2014 02:56 3,6 C 1,1 C 85 % 996,2 hPa 0,0 l/m 0 min 0 min 0,0 UV-I 0 W/m 0,0 km/h (0 Bft)
10.02.2014 02:58 3,6 C 1,1 C 85 % 996,3 hPa 0,0 l/m 0 min 0 min 0,0 UV-I 0 W/m 0,0 km/h (0 Bft)
10.02.2014 03:00 3,5 C 1,1 C 85 % 996,2 hPa 0,0 l/m 0 min 0 min 0,0 UV-I 0 W/m 7,7 km/h (2 Bft)
10.02.2014 03:02 3,4 C 1,1 C 85 % 996,2 hPa 0,0 l/m 0 min 0 min 0,0 UV-I 0 W/m 5,1 km/h (1 Bft)
10.02.2014 03:04 3,4 C 1,1 C 85 % 996,1 hPa 0,0 l/m 0 min 0 min 0,0 UV-I 0 W/m 5,1 km/h (1 Bft)
10.02.2014 03:06 3,4 C 1,1 C 86 % 996,1 hPa 0,0 l/m 0 min 0 min 0,0 UV-I 0 W/m 0,0 km/h (0 Bft)
10.02.2014 03:08 3,3 C 1,1 C 86 % 996,2 hPa 0,0 l/m 0 min 0 min 0,0 UV-I 0 W/m 5,1 km/h (1 Bft)
10.02.2014 03:10 3,3 C 1,1 C 86 % 996,2 hPa 0,0 l/m 0 min 0 min 0,0 UV-I 0 W/m 5,1 km/h (1 Bft)
10.02.2014 03:12 3,3 C 1,1 C 86 % 996,1 hPa 0,0 l/m 0 min 0 min 0,0 UV-I 0 W/m 7,7 km/h (2 Bft)
10.02.2014 03:14 3,2 C 1,1 C 86 % 996,1 hPa 0,0 l/m 0 min 0 min 0,0 UV-I 0 W/m 0,0 km/h (0 Bft)
10.02.2014 03:16 3,2 C 1,1 C 86 % 996,1 hPa 0,0 l/m 0 min 0 min 0,0 UV-I 0 W/m 5,1 km/h (1 Bft)
10.02.2014 03:18 3,2 C 0,6 C 86 % 996,1 hPa 0,0 l/m 0 min 0 min 0,0 UV-I 0 W/m 7,7 km/h (2 Bft)
10.02.2014 03:20 3,1 C 0,6 C 86 % 996,1 hPa 0,0 l/m 0 min 0 min 0,0 UV-I 0 W/m 7,7 km/h (2 Bft)
10.02.2014 03:22 3,1 C 0,6 C 86 % 996,0 hPa 0,0 l/m 0 min 0 min 0,0 UV-I 0 W/m 5,1 km/h (1 Bft)
10.02.2014 03:24 3,0 C 1,1 C 86 % 996,1 hPa 0,0 l/m 0 min 0 min 0,0 UV-I 0 W/m 10,3 km/h (2 Bft)
10.02.2014 03:26 2,9 C 1,1 C 86 % 996,1 hPa 0,0 l/m 0 min 0 min 0,0 UV-I 0 W/m 10,3 km/h (2 Bft)
10.02.2014 03:28 2,9 C 1,1 C 87 % 996,1 hPa 0,0 l/m 0 min 0 min 0,0 UV-I 0 W/m 7,7 km/h (2 Bft)
10.02.2014 03:30 2,9 C 0,6 C 87 % 996,1 hPa 0,0 l/m 0 min 0 min 0,0 UV-I 0 W/m 7,7 km/h (2 Bft)
10.02.2014 03:32 2,8 C 0,6 C 87 % 996,1 hPa 0,0 l/m 0 min 0 min 0,0 UV-I 0 W/m 2,6 km/h (1 Bft)
10.02.2014 03:34 2,8 C 0,6 C 87 % 996,1 hPa 0,0 l/m 0 min 0 min 0,0 UV-I 0 W/m 12,9 km/h (3 Bft)
10.02.2014 03:36 2,7 C 1,1 C 87 % 996,1 hPa 0,0 l/m 0 min 0 min 0,0 UV-I 0 W/m 10,3 km/h (2 Bft)
10.02.2014 03:38 2,7 C 1,1 C 87 % 996,1 hPa 0,0 l/m 0 min 0 min 0,0 UV-I 0 W/m 15,4 km/h (3 Bft)
10.02.2014 03:40 2,7 C 1,1 C 87 % 996,0 hPa 0,0 l/m 0 min 0 min 0,0 UV-I 0 W/m 15,4 km/h (3 Bft)
10.02.2014 03:42 2,7 C 1,1 C 88 % 996,1 hPa 0,0 l/m 0 min 0 min 0,0 UV-I 0 W/m 12,9 km/h (3 Bft)
10.02.2014 03:44 2,6 C 1,1 C 88 % 996,1 hPa 0,0 l/m 0 min 0 min 0,0 UV-I 0 W/m 10,3 km/h (2 Bft)
10.02.2014 03:46 2,6 C 1,1 C 88 % 996,1 hPa 0,0 l/m 0 min 0 min 0,0 UV-I 0 W/m 18,0 km/h (3 Bft)
10.02.2014 03:48 2,6 C 1,1 C 88 % 996,1 hPa 0,0 l/m 0 min 0 min 0,0 UV-I 0 W/m 15,4 km/h (3 Bft)
10.02.2014 03:50 2,6 C 1,1 C 88 % 996,1 hPa 0,0 l/m 0 min 0 min 0,0 UV-I 0 W/m 15,4 km/h (3 Bft)
10.02.2014 03:52 2,6 C 1,1 C 88 % 996,0 hPa 0,0 l/m 0 min 0 min 0,0 UV-I 0 W/m 15,4 km/h (3 Bft)
10.02.2014 03:54 2,6 C 1,1 C 88 % 996,0 hPa 0,0 l/m 0 min 0 min 0,0 UV-I 0 W/m 10,3 km/h (2 Bft)
10.02.2014 03:56 2,5 C 1,1 C 88 % 996,0 hPa 0,0 l/m 0 min 0 min 0,0 UV-I 0 W/m 15,4 km/h (3 Bft)
10.02.2014 03:58 2,5 C 1,1 C 88 % 996,0 hPa 0,0 l/m 0 min 0 min 0,0 UV-I 0 W/m 10,3 km/h (2 Bft)
10.02.2014 04:00 2,5 C 1,1 C 88 % 996,0 hPa 0,0 l/m 0 min 0 min 0,0 UV-I 0 W/m 12,9 km/h (3 Bft)
10.02.2014 04:02 2,5 C 1,1 C 88 % 996,0 hPa 0,0 l/m 0 min 0 min 0,0 UV-I 0 W/m 10,3 km/h (2 Bft)
10.02.2014 04:04 2,4 C 0,6 C 89 % 996,0 hPa 0,0 l/m 0 min 0 min 0,0 UV-I 0 W/m 10,3 km/h (2 Bft)
10.02.2014 04:06 2,4 C 0,6 C 89 % 995,9 hPa 0,0 l/m 0 min 0 min 0,0 UV-I 0 W/m 10,3 km/h (2 Bft)
10.02.2014 04:08 2,4 C 0,6 C 89 % 995,9 hPa 0,0 l/m 0 min 0 min 0,0 UV-I 0 W/m 12,9 km/h (3 Bft)
10.02.2014 04:10 2,4 C 0,6 C 89 % 995,9 hPa 0,0 l/m 0 min 0 min 0,0 UV-I 0 W/m 10,3 km/h (2 Bft)
10.02.2014 04:12 2,4 C 0,6 C 89 % 995,9 hPa 0,0 l/m 0 min 0 min 0,0 UV-I 0 W/m 5,1 km/h (1 Bft)
10.02.2014 04:14 2,4 C 0,6 C 89 % 995,8 hPa 0,0 l/m 0 min 0 min 0,0 UV-I 0 W/m 7,7 km/h (2 Bft)
10.02.2014 04:16 2,4 C 0,6 C 89 % 995,8 hPa 0,0 l/m 0 min 0 min 0,0 UV-I 0 W/m 2,6 km/h (1 Bft)
10.02.2014 04:18 2,4 C 0,6 C 89 % 995,8 hPa 0,0 l/m 0 min 0 min 0,0 UV-I 0 W/m 0,0 km/h (0 Bft)
10.02.2014 04:20 2,3 C 0,6 C 89 % 995,7 hPa 0,0 l/m 0 min 0 min 0,0 UV-I 0 W/m 7,7 km/h (2 Bft)
10.02.2014 04:22 2,3 C 0,6 C 89 % 995,8 hPa 0,0 l/m 0 min 0 min 0,0 UV-I 0 W/m 7,7 km/h (2 Bft)
10.02.2014 04:24 2,3 C 0,6 C 89 % 995,8 hPa 0,0 l/m 0 min 0 min 0,0 UV-I 0 W/m 10,3 km/h (2 Bft)
10.02.2014 04:26 2,3 C 0,6 C 89 % 995,7 hPa 0,0 l/m 0 min 0 min 0,0 UV-I 0 W/m 12,9 km/h (3 Bft)
10.02.2014 04:28 2,3 C 0,6 C 89 % 995,6 hPa 0,0 l/m 0 min 0 min 0,0 UV-I 0 W/m 7,7 km/h (2 Bft)
10.02.2014 04:30 2,3 C 0,6 C 89 % 995,5 hPa 0,0 l/m 0 min 0 min 0,0 UV-I 0 W/m 7,7 km/h (2 Bft)
10.02.2014 04:32 2,3 C 0,6 C 90 % 995,5 hPa 0,0 l/m 0 min 0 min 0,0 UV-I 0 W/m 10,3 km/h (2 Bft)
10.02.2014 04:34 2,3 C 0,6 C 90 % 995,6 hPa 0,0 l/m 0 min 0 min 0,0 UV-I 0 W/m 7,7 km/h (2 Bft)
10.02.2014 04:36 2,3 C 1,1 C 90 % 995,6 hPa 0,0 l/m 0 min 0 min 0,0 UV-I 0 W/m 7,7 km/h (2 Bft)
10.02.2014 04:38 2,3 C 1,1 C 90 % 995,6 hPa 0,0 l/m 0 min 0 min 0,0 UV-I 0 W/m 10,3 km/h (2 Bft)
10.02.2014 04:40 2,3 C 1,1 C 90 % 995,6 hPa 0,0 l/m 0 min 0 min 0,0 UV-I 0 W/m 7,7 km/h (2 Bft)
10.02.2014 04:42 2,3 C 0,6 C 90 % 995,5 hPa 0,0 l/m 0 min 0 min 0,0 UV-I 0 W/m 7,7 km/h (2 Bft)
10.02.2014 04:44 2,3 C 0,6 C 90 % 995,5 hPa 0,0 l/m 0 min 0 min 0,0 UV-I 0 W/m 7,7 km/h (2 Bft)
10.02.2014 04:46 2,3 C 0,6 C 90 % 995,5 hPa 0,0 l/m 0 min 0 min 0,0 UV-I 0 W/m 7,7 km/h (2 Bft)
10.02.2014 04:48 2,3 C 0,6 C 90 % 995,5 hPa 0,0 l/m 0 min 0 min 0,0 UV-I 0 W/m 7,7 km/h (2 Bft)
10.02.2014 04:50 2,3 C 1,1 C 90 % 995,4 hPa 0,0 l/m 0 min 0 min 0,0 UV-I 0 W/m 7,7 km/h (2 Bft)
10.02.2014 04:52 2,3 C 1,1 C 90 % 995,4 hPa 0,0 l/m 0 min 0 min 0,0 UV-I 0 W/m 10,3 km/h (2 Bft)
10.02.2014 04:54 2,3 C 1,1 C 90 % 995,3 hPa 0,0 l/m 0 min 0 min 0,0 UV-I 0 W/m 12,9 km/h (3 Bft)
10.02.2014 04:56 2,3 C 1,1 C 90 % 995,3 hPa 0,0 l/m 0 min 0 min 0,0 UV-I 0 W/m 7,7 km/h (2 Bft)
10.02.2014 04:58 2,3 C 1,1 C 90 % 995,3 hPa 0,0 l/m 0 min 0 min 0,0 UV-I 0 W/m 10,3 km/h (2 Bft)
10.02.2014 05:00 2,3 C 1,1 C 90 % 995,3 hPa 0,0 l/m 0 min 0 min 0,0 UV-I 0 W/m 7,7 km/h (2 Bft)
10.02.2014 05:02 2,3 C 1,1 C 90 % 995,3 hPa 0,0 l/m 0 min 0 min 0,0 UV-I 0 W/m 10,3 km/h (2 Bft)
10.02.2014 05:04 2,3 C 1,1 C 90 % 995,4 hPa 0,0 l/m 0 min 0 min 0,0 UV-I 0 W/m 12,9 km/h (3 Bft)
10.02.2014 05:06 2,3 C 1,1 C 90 % 995,3 hPa 0,0 l/m 0 min 0 min 0,0 UV-I 0 W/m 15,4 km/h (3 Bft)
10.02.2014 05:08 2,3 C 1,1 C 91 % 995,4 hPa 0,0 l/m 0 min 0 min 0,0 UV-I 0 W/m 12,9 km/h (3 Bft)
10.02.2014 05:10 2,3 C 1,1 C 91 % 995,4 hPa 0,0 l/m 0 min 0 min 0,0 UV-I 0 W/m 12,9 km/h (3 Bft)
10.02.2014 05:12 2,3 C 1,1 C 91 % 995,4 hPa 0,0 l/m 0 min 0 min 0,0 UV-I 0 W/m 7,7 km/h (2 Bft)
10.02.2014 05:14 2,4 C 1,1 C 91 % 995,4 hPa 0,0 l/m 0 min 0 min 0,0 UV-I 0 W/m 15,4 km/h (3 Bft)
10.02.2014 05:16 2,4 C 1,1 C 91 % 995,4 hPa 0,0 l/m 0 min 0 min 0,0 UV-I 0 W/m 10,3 km/h (2 Bft)
10.02.2014 05:18 2,4 C 1,1 C 91 % 995,3 hPa 0,0 l/m 0 min 0 min 0,0 UV-I 0 W/m 15,4 km/h (3 Bft)
10.02.2014 05:20 2,4 C 1,1 C 91 % 995,4 hPa 0,0 l/m 0 min 0 min 0,0 UV-I 0 W/m 15,4 km/h (3 Bft)
10.02.2014 05:22 2,4 C 1,1 C 91 % 995,4 hPa 0,0 l/m 0 min 0 min 0,0 UV-I 0 W/m 7,7 km/h (2 Bft)
10.02.2014 05:24 2,4 C 1,1 C 91 % 995,4 hPa 0,0 l/m 0 min 0 min 0,0 UV-I 0 W/m 15,4 km/h (3 Bft)
10.02.2014 05:26 2,4 C 1,1 C 91 % 995,3 hPa 0,0 l/m 0 min 0 min 0,0 UV-I 0 W/m 18,0 km/h (3 Bft)
10.02.2014 05:28 2,5 C 1,1 C 91 % 995,3 hPa 0,0 l/m 0 min 0 min 0,0 UV-I 0 W/m 15,4 km/h (3 Bft)
10.02.2014 05:30 2,5 C 1,1 C 91 % 995,3 hPa 0,0 l/m 0 min 0 min 0,0 UV-I 0 W/m 10,3 km/h (2 Bft)
10.02.2014 05:32 2,5 C 1,1 C 91 % 995,3 hPa 0,0 l/m 0 min 0 min 0,0 UV-I 0 W/m 12,9 km/h (3 Bft)
10.02.2014 05:34 2,5 C 1,1 C 91 % 995,2 hPa 0,0 l/m 0 min 0 min 0,0 UV-I 0 W/m 10,3 km/h (2 Bft)
10.02.2014 05:36 2,5 C 1,1 C 90 % 995,3 hPa 0,0 l/m 0 min 0 min 0,0 UV-I 0 W/m 15,4 km/h (3 Bft)
10.02.2014 05:38 2,5 C 1,1 C 90 % 995,3 hPa 0,0 l/m 0 min 0 min 0,0 UV-I 0 W/m 23,2 km/h (4 Bft)
10.02.2014 05:40 2,5 C 1,1 C 90 % 995,3 hPa 0,0 l/m 0 min 0 min 0,0 UV-I 0 W/m 15,4 km/h (3 Bft)
10.02.2014 05:42 2,5 C 1,1 C 90 % 995,4 hPa 0,0 l/m 0 min 0 min 0,0 UV-I 0 W/m 10,3 km/h (2 Bft)
10.02.2014 05:44 2,6 C 1,1 C 90 % 995,4 hPa 0,0 l/m 0 min 0 min 0,0 UV-I 0 W/m 12,9 km/h (3 Bft)
10.02.2014 05:46 2,6 C 1,1 C 90 % 995,3 hPa 0,0 l/m 0 min 0 min 0,0 UV-I 0 W/m 10,3 km/h (2 Bft)
10.02.2014 05:48 2,6 C 1,1 C 90 % 995,3 hPa 0,0 l/m 0 min 0 min 0,0 UV-I 0 W/m 12,9 km/h (3 Bft)
10.02.2014 05:50 2,6 C 1,1 C 90 % 995,2 hPa 0,0 l/m 0 min 0 min 0,0 UV-I 0 W/m 15,4 km/h (3 Bft)
10.02.2014 05:52 2,6 C 1,1 C 90 % 995,2 hPa 0,0 l/m 0 min 0 min 0,0 UV-I 0 W/m 7,7 km/h (2 Bft)
10.02.2014 05:54 2,6 C 1,1 C 90 % 995,2 hPa 0,0 l/m 0 min 0 min 0,0 UV-I 0 W/m 15,4 km/h (3 Bft)
10.02.2014 05:56 2,6 C 1,1 C 90 % 995,1 hPa 0,0 l/m 0 min 0 min 0,0 UV-I 0 W/m 18,0 km/h (3 Bft)
10.02.2014 05:58 2,6 C 1,1 C 90 % 995,2 hPa 0,0 l/m 0 min 0 min 0,0 UV-I 0 W/m 18,0 km/h (3 Bft)
10.02.2014 06:00 2,6 C 1,1 C 90 % 995,2 hPa 0,0 l/m 0 min 0 min 0,0 UV-I 0 W/m 12,9 km/h (3 Bft)
10.02.2014 06:02 2,6 C 1,1 C 90 % 995,1 hPa 0,0 l/m 0 min 0 min 0,0 UV-I 0 W/m 15,4 km/h (3 Bft)
10.02.2014 06:04 2,7 C 1,1 C 90 % 995,1 hPa 0,0 l/m 0 min 0 min 0,0 UV-I 0 W/m 18,0 km/h (3 Bft)
10.02.2014 06:06 2,7 C 1,1 C 90 % 995,0 hPa 0,0 l/m 0 min 0 min 0,0 UV-I 0 W/m 10,3 km/h (2 Bft)
10.02.2014 06:08 2,7 C 1,1 C 90 % 995,0 hPa 0,0 l/m 0 min 0 min 0,0 UV-I 0 W/m 15,4 km/h (3 Bft)
10.02.2014 06:10 2,7 C 1,1 C 90 % 995,0 hPa 0,0 l/m 0 min 0 min 0,0 UV-I 0 W/m 10,3 km/h (2 Bft)
10.02.2014 06:12 2,7 C 1,1 C 90 % 994,9 hPa 0,0 l/m 0 min 0 min 0,0 UV-I 0 W/m 12,9 km/h (3 Bft)
10.02.2014 06:14 2,7 C 1,7 C 90 % 994,9 hPa 0,0 l/m 0 min 0 min 0,0 UV-I 0 W/m 12,9 km/h (3 Bft)
10.02.2014 06:16 2,7 C 1,7 C 90 % 994,8 hPa 0,0 l/m 0 min 0 min 0,0 UV-I 0 W/m 15,4 km/h (3 Bft)
10.02.2014 06:18 2,7 C 1,1 C 90 % 994,9 hPa 0,0 l/m 0 min 0 min 0,0 UV-I 0 W/m 10,3 km/h (2 Bft)
10.02.2014 06:20 2,7 C 1,7 C 90 % 994,8 hPa 0,0 l/m 0 min 0 min 0,0 UV-I 0 W/m 12,9 km/h (3 Bft)
10.02.2014 06:22 2,7 C 1,7 C 90 % 994,7 hPa 0,0 l/m 0 min 0 min 0,0 UV-I 0 W/m 7,7 km/h (2 Bft)
10.02.2014 06:24 2,7 C 1,1 C 90 % 994,7 hPa 0,0 l/m 0 min 0 min 0,0 UV-I 0 W/m 12,9 km/h (3 Bft)
10.02.2014 06:26 2,7 C 1,1 C 90 % 994,8 hPa 0,0 l/m 0 min 0 min 0,0 UV-I 0 W/m 10,3 km/h (2 Bft)
10.02.2014 06:28 2,7 C 1,1 C 90 % 994,6 hPa 0,0 l/m 0 min 0 min 0,0 UV-I 0 W/m 12,9 km/h (3 Bft)
10.02.2014 06:30 2,7 C 1,1 C 89 % 994,6 hPa 0,0 l/m 0 min 0 min 0,0 UV-I 0 W/m 10,3 km/h (2 Bft)
10.02.2014 06:32 2,7 C 1,1 C 89 % 994,6 hPa 0,0 l/m 0 min 0 min 0,0 UV-I 0 W/m 7,7 km/h (2 Bft)
10.02.2014 06:34 2,7 C 1,1 C 89 % 994,6 hPa 0,0 l/m 0 min 0 min 0,0 UV-I 0 W/m 10,3 km/h (2 Bft)
10.02.2014 06:36 2,7 C 1,1 C 89 % 994,5 hPa 0,0 l/m 0 min 0 min 0,0 UV-I 0 W/m 10,3 km/h (2 Bft)
10.02.2014 06:38 2,7 C 1,1 C 89 % 994,5 hPa 0,0 l/m 0 min 0 min 0,0 UV-I 0 W/m 0,0 km/h (0 Bft)
10.02.2014 06:40 2,7 C 1,1 C 89 % 994,4 hPa 0,0 l/m 0 min 0 min 0,0 UV-I 0 W/m 15,4 km/h (3 Bft)
10.02.2014 06:42 2,7 C 1,1 C 89 % 994,4 hPa 0,0 l/m 0 min 0 min 0,0 UV-I 0 W/m 12,9 km/h (3 Bft)
10.02.2014 06:44 2,7 C 1,1 C 89 % 994,3 hPa 0,0 l/m 0 min 0 min 0,0 UV-I 0 W/m 5,1 km/h (1 Bft)
10.02.2014 06:46 2,7 C 1,1 C 89 % 994,2 hPa 0,0 l/m 0 min 0 min 0,0 UV-I 0 W/m 0,0 km/h (0 Bft)
10.02.2014 06:48 2,7 C 1,1 C 89 % 994,1 hPa 0,0 l/m 0 min 0 min 0,0 UV-I 0 W/m 2,6 km/h (1 Bft)
10.02.2014 06:50 2,7 C 1,1 C 89 % 994,2 hPa 0,0 l/m 0 min 0 min 0,0 UV-I 0 W/m 15,4 km/h (3 Bft)
10.02.2014 06:52 2,7 C 1,1 C 89 % 994,2 hPa 0,0 l/m 0 min 0 min 0,0 UV-I 0 W/m 7,7 km/h (2 Bft)
10.02.2014 06:54 2,7 C 1,1 C 89 % 994,3 hPa 0,0 l/m 0 min 0 min 0,0 UV-I 0 W/m 15,4 km/h (3 Bft)
10.02.2014 06:56 2,7 C 1,7 C 89 % 994,4 hPa 0,0 l/m 0 min 0 min 0,0 UV-I 0 W/m 23,2 km/h (4 Bft)
10.02.2014 06:58 2,7 C 1,7 C 89 % 994,3 hPa 0,0 l/m 0 min 0 min 0,0 UV-I 0 W/m 10,3 km/h (2 Bft)
10.02.2014 07:00 2,7 C 1,7 C 89 % 994,3 hPa 0,0 l/m 0 min 0 min 0,0 UV-I 0 W/m 12,9 km/h (3 Bft)
10.02.2014 07:02 2,7 C 1,7 C 89 % 994,3 hPa 0,0 l/m 0 min 0 min 0,0 UV-I 0 W/m 10,3 km/h (2 Bft)
10.02.2014 07:04 2,7 C 1,7 C 89 % 994,4 hPa 0,0 l/m 0 min 0 min 0,0 UV-I 0 W/m 15,4 km/h (3 Bft)
10.02.2014 07:06 2,7 C 1,7 C 89 % 994,4 hPa 0,0 l/m 0 min 0 min 0,0 UV-I 0 W/m 12,9 km/h (3 Bft)
10.02.2014 07:08 2,7 C 1,7 C 89 % 994,4 hPa 0,0 l/m 0 min 0 min 0,0 UV-I 0 W/m 25,7 km/h (4 Bft)
10.02.2014 07:10 2,7 C 1,7 C 89 % 994,5 hPa 0,0 l/m 0 min 0 min 0,0 UV-I 0 W/m 20,6 km/h (4 Bft)
10.02.2014 07:12 2,7 C 1,7 C 89 % 994,4 hPa 0,0 l/m 0 min 0 min 0,0 UV-I 0 W/m 18,0 km/h (3 Bft)
10.02.2014 07:14 2,7 C 1,7 C 89 % 994,5 hPa 0,0 l/m 0 min 0 min 0,0 UV-I 0 W/m 12,9 km/h (3 Bft)
10.02.2014 07:16 2,7 C 1,7 C 88 % 994,4 hPa 0,0 l/m 0 min 0 min 0,0 UV-I 0 W/m 12,9 km/h (3 Bft)
10.02.2014 07:18 2,7 C 1,7 C 88 % 994,5 hPa 0,0 l/m 0 min 0 min 0,0 UV-I 0 W/m 15,4 km/h (3 Bft)
10.02.2014 07:20 2,8 C 1,7 C 88 % 994,5 hPa 0,0 l/m 0 min 0 min 0,0 UV-I 0 W/m 12,9 km/h (3 Bft)
10.02.2014 07:22 2,8 C 1,7 C 88 % 994,5 hPa 0,0 l/m 0 min 0 min 0,0 UV-I 0 W/m 10,3 km/h (2 Bft)
10.02.2014 07:24 2,7 C 1,7 C 88 % 994,5 hPa 0,0 l/m 0 min 0 min 0,0 UV-I 0 W/m 7,7 km/h (2 Bft)
10.02.2014 07:26 2,7 C 1,7 C 88 % 994,5 hPa 0,0 l/m 0 min 0 min 0,0 UV-I 0 W/m 5,1 km/h (1 Bft)
10.02.2014 07:28 2,8 C 1,7 C 88 % 994,5 hPa 0,0 l/m 0 min 0 min 0,0 UV-I 0 W/m 18,0 km/h (3 Bft)
10.02.2014 07:30 2,7 C 1,7 C 88 % 994,4 hPa 0,0 l/m 0 min 0 min 0,0 UV-I 0 W/m 5,1 km/h (1 Bft)
10.02.2014 07:32 2,8 C 1,7 C 88 % 994,5 hPa 0,0 l/m 0 min 0 min 0,0 UV-I 0 W/m 10,3 km/h (2 Bft)
10.02.2014 07:34 2,8 C 1,7 C 88 % 994,5 hPa 0,0 l/m 0 min 0 min 0,0 UV-I 0 W/m 7,7 km/h (2 Bft)
10.02.2014 07:36 2,8 C 1,7 C 88 % 994,5 hPa 0,0 l/m 0 min 0 min 0,0 UV-I 0 W/m 18,0 km/h (3 Bft)
10.02.2014 07:38 2,8 C 1,7 C 88 % 994,6 hPa 0,0 l/m 0 min 0 min 0,0 UV-I 0 W/m 10,3 km/h (2 Bft)
10.02.2014 07:40 2,8 C 1,7 C 88 % 994,6 hPa 0,0 l/m 0 min 0 min 0,0 UV-I 0 W/m 18,0 km/h (3 Bft)
10.02.2014 07:42 2,8 C 1,7 C 88 % 994,6 hPa 0,0 l/m 0 min 0 min 0,0 UV-I 0 W/m 20,6 km/h (4 Bft)
10.02.2014 07:44 2,8 C 1,7 C 88 % 994,6 hPa 0,0 l/m 0 min 0 min 0,0 UV-I 0 W/m 12,9 km/h (3 Bft)
10.02.2014 07:46 2,8 C 1,7 C 88 % 994,6 hPa 0,0 l/m 0 min 0 min 0,0 UV-I 0 W/m 15,4 km/h (3 Bft)
10.02.2014 07:48 2,8 C 1,7 C 87 % 994,7 hPa 0,0 l/m 0 min 0 min 0,0 UV-I 0 W/m 12,9 km/h (3 Bft)
10.02.2014 07:50 2,8 C 1,7 C 87 % 994,6 hPa 0,0 l/m 0 min 0 min 0,0 UV-I 0 W/m 18,0 km/h (3 Bft)
10.02.2014 07:52 2,8 C 1,7 C 87 % 994,7 hPa 0,0 l/m 0 min 0 min 0,0 UV-I 0 W/m 10,3 km/h (2 Bft)
10.02.2014 07:54 2,9 C 1,7 C 87 % 994,8 hPa 0,0 l/m 0 min 0 min 0,0 UV-I 0 W/m 18,0 km/h (3 Bft)
10.02.2014 07:56 2,9 C 1,7 C 87 % 994,7 hPa 0,0 l/m 0 min 0 min 0,0 UV-I 0 W/m 15,4 km/h (3 Bft)
10.02.2014 07:58 2,9 C 1,7 C 87 % 994,9 hPa 0,0 l/m 0 min 0 min 0,0 UV-I 0 W/m 18,0 km/h (3 Bft)
10.02.2014 08:00 2,9 C 1,7 C 87 % 994,9 hPa 0,0 l/m 0 min 0 min 0,0 UV-I 0 W/m 15,4 km/h (3 Bft)
10.02.2014 08:02 2,9 C 1,7 C 87 % 994,8 hPa 0,0 l/m 0 min 0 min 0,0 UV-I 0 W/m 12,9 km/h (3 Bft)
10.02.2014 08:04 2,9 C 1,7 C 87 % 994,8 hPa 0,0 l/m 0 min 0 min 0,0 UV-I 0 W/m 12,9 km/h (3 Bft)
10.02.2014 08:06 2,9 C 1,7 C 87 % 994,8 hPa 0,0 l/m 0 min 0 min 0,0 UV-I 5 W/m 18,0 km/h (3 Bft)
10.02.2014 08:08 2,9 C 1,7 C 87 % 994,8 hPa 0,0 l/m 0 min 0 min 0,0 UV-I 5 W/m 12,9 km/h (3 Bft)
10.02.2014 08:10 2,9 C 1,7 C 87 % 994,8 hPa 0,0 l/m 0 min 0 min 0,0 UV-I 7 W/m 18,0 km/h (3 Bft)
10.02.2014 08:12 2,9 C 1,7 C 87 % 994,8 hPa 0,0 l/m 0 min 0 min 0,0 UV-I 7 W/m 12,9 km/h (3 Bft)
10.02.2014 08:14 2,9 C 1,7 C 87 % 994,9 hPa 0,0 l/m 0 min 0 min 0,0 UV-I 9 W/m 20,6 km/h (4 Bft)
10.02.2014 08:16 2,9 C 1,7 C 87 % 994,9 hPa 0,0 l/m 0 min 0 min 0,0 UV-I 11 W/m 20,6 km/h (4 Bft)
10.02.2014 08:18 2,9 C 1,7 C 87 % 994,9 hPa 0,0 l/m 0 min 0 min 0,0 UV-I 11 W/m 18,0 km/h (3 Bft)
10.02.2014 08:20 2,9 C 1,7 C 87 % 995,0 hPa 0,0 l/m 0 min 0 min 0,0 UV-I 12 W/m 12,9 km/h (3 Bft)
10.02.2014 08:22 2,9 C 1,7 C 87 % 995,0 hPa 0,0 l/m 0 min 0 min 0,0 UV-I 12 W/m 10,3 km/h (2 Bft)
10.02.2014 08:24 3,0 C 1,7 C 87 % 995,0 hPa 0,0 l/m 0 min 0 min 0,0 UV-I 14 W/m 7,7 km/h (2 Bft)
10.02.2014 08:26 3,0 C 1,7 C 87 % 994,9 hPa 0,0 l/m 0 min 0 min 0,0 UV-I 14 W/m 18,0 km/h (3 Bft)
10.02.2014 08:28 3,0 C 1,7 C 87 % 994,9 hPa 0,0 l/m 0 min 0 min 0,0 UV-I 14 W/m 18,0 km/h (3 Bft)
10.02.2014 08:30 3,0 C 2,2 C 87 % 994,9 hPa 0,0 l/m 0 min 0 min 0,0 UV-I 14 W/m 7,7 km/h (2 Bft)
10.02.2014 08:32 3,0 C 2,2 C 87 % 994,9 hPa 0,0 l/m 0 min 0 min 0,0 UV-I 14 W/m 18,0 km/h (3 Bft)
10.02.2014 08:34 3,0 C 2,2 C 87 % 994,9 hPa 0,0 l/m 0 min 0 min 0,0 UV-I 16 W/m 18,0 km/h (3 Bft)
10.02.2014 08:36 3,1 C 2,2 C 87 % 994,9 hPa 0,0 l/m 0 min 0 min 0,0 UV-I 18 W/m 12,9 km/h (3 Bft)
10.02.2014 08:38 3,1 C 2,2 C 87 % 995,0 hPa 0,0 l/m 0 min 0 min 0,0 UV-I 18 W/m 15,4 km/h (3 Bft)
10.02.2014 08:40 3,1 C 2,2 C 86 % 995,0 hPa 0,0 l/m 0 min 0 min 0,0 UV-I 21 W/m 10,3 km/h (2 Bft)
10.02.2014 08:42 3,1 C 2,2 C 86 % 995,0 hPa 0,0 l/m 0 min 0 min 0,0 UV-I 21 W/m 12,9 km/h (3 Bft)
10.02.2014 08:44 3,1 C 2,2 C 87 % 995,1 hPa 0,0 l/m 0 min 0 min 0,0 UV-I 26 W/m 10,3 km/h (2 Bft)
10.02.2014 08:46 3,1 C 2,2 C 87 % 995,1 hPa 0,0 l/m 0 min 0 min 0,0 UV-I 30 W/m 7,7 km/h (2 Bft)
10.02.2014 08:48 3,2 C 2,2 C 87 % 995,1 hPa 0,0 l/m 0 min 0 min 0,0 UV-I 32 W/m 2,6 km/h (1 Bft)
10.02.2014 08:50 3,2 C 2,2 C 87 % 995,1 hPa 0,0 l/m 0 min 0 min 0,0 UV-I 32 W/m 12,9 km/h (3 Bft)
10.02.2014 08:52 3,2 C 2,2 C 87 % 995,1 hPa 0,0 l/m 0 min 0 min 0,0 UV-I 32 W/m 10,3 km/h (2 Bft)
10.02.2014 08:54 3,2 C 2,2 C 87 % 995,1 hPa 0,0 l/m 0 min 0 min 0,0 UV-I 33 W/m 10,3 km/h (2 Bft)
10.02.2014 08:56 3,2 C 2,2 C 87 % 995,1 hPa 0,0 l/m 0 min 0 min 0,0 UV-I 33 W/m 5,1 km/h (1 Bft)
10.02.2014 08:58 3,2 C 2,2 C 87 % 995,1 hPa 0,0 l/m 0 min 0 min 0,0 UV-I 32 W/m 12,9 km/h (3 Bft)
10.02.2014 09:00 3,2 C 2,2 C 87 % 995,1 hPa 0,0 l/m 0 min 0 min 0,0 UV-I 32 W/m 0,0 km/h (0 Bft)
10.02.2014 09:02 3,2 C 2,2 C 86 % 995,1 hPa 0,0 l/m 0 min 0 min 0,0 UV-I 30 W/m 7,7 km/h (2 Bft)
10.02.2014 09:04 3,3 C 2,2 C 86 % 995,2 hPa 0,0 l/m 0 min 0 min 0,0 UV-I 26 W/m 2,6 km/h (1 Bft)
10.02.2014 09:06 3,3 C 2,2 C 86 % 995,2 hPa 0,0 l/m 0 min 0 min 0,0 UV-I 28 W/m 0,0 km/h (0 Bft)
10.02.2014 09:08 3,3 C 2,2 C 86 % 995,1 hPa 0,0 l/m 0 min 0 min 0,0 UV-I 30 W/m 5,1 km/h (1 Bft)
10.02.2014 09:10 3,3 C 2,8 C 86 % 995,2 hPa 0,0 l/m 0 min 0 min 0,0 UV-I 35 W/m 5,1 km/h (1 Bft)
10.02.2014 09:12 3,3 C 2,8 C 86 % 995,1 hPa 0,0 l/m 0 min 0 min 0,0 UV-I 37 W/m 7,7 km/h (2 Bft)
10.02.2014 09:14 3,3 C 2,8 C 86 % 995,1 hPa 0,0 l/m 0 min 0 min 0,0 UV-I 40 W/m 0,0 km/h (0 Bft)
10.02.2014 09:16 3,3 C 2,8 C 86 % 995,1 hPa 0,0 l/m 0 min 0 min 0,0 UV-I 42 W/m 0,0 km/h (0 Bft)
10.02.2014 09:18 3,4 C 2,8 C 86 % 995,1 hPa 0,0 l/m 0 min 0 min 0,0 UV-I 44 W/m 7,7 km/h (2 Bft)
10.02.2014 09:20 3,4 C 2,8 C 86 % 995,2 hPa 0,0 l/m 0 min 0 min 0,0 UV-I 44 W/m 0,0 km/h (0 Bft)
10.02.2014 09:22 3,4 C 2,8 C 86 % 995,2 hPa 0,0 l/m 0 min 0 min 0,0 UV-I 46 W/m 2,6 km/h (1 Bft)
10.02.2014 09:24 3,4 C 2,8 C 86 % 995,1 hPa 0,0 l/m 0 min 0 min 0,0 UV-I 53 W/m 10,3 km/h (2 Bft)
10.02.2014 09:26 3,5 C 3,3 C 86 % 995,2 hPa 0,0 l/m 0 min 0 min 0,0 UV-I 62 W/m 15,4 km/h (3 Bft)
10.02.2014 09:28 3,5 C 3,3 C 87 % 995,2 hPa 0,0 l/m 0 min 0 min 0,0 UV-I 77 W/m 5,1 km/h (1 Bft)
10.02.2014 09:30 3,6 C 3,3 C 86 % 995,2 hPa 0,0 l/m 0 min 0 min 0,0 UV-I 86 W/m 5,1 km/h (1 Bft)
10.02.2014 09:32 3,6 C 3,9 C 86 % 995,2 hPa 0,0 l/m 0 min 0 min 0,0 UV-I 91 W/m 12,9 km/h (3 Bft)
10.02.2014 09:34 3,7 C 3,9 C 86 % 995,3 hPa 0,0 l/m 0 min 0 min 0,0 UV-I 88 W/m 7,7 km/h (2 Bft)
10.02.2014 09:36 3,7 C 3,9 C 86 % 995,3 hPa 0,0 l/m 0 min 0 min 0,0 UV-I 81 W/m 0,0 km/h (0 Bft)
10.02.2014 09:38 3,8 C 3,9 C 86 % 995,2 hPa 0,0 l/m 0 min 0 min 0,0 UV-I 76 W/m 0,0 km/h (0 Bft)
10.02.2014 09:40 3,8 C 3,9 C 86 % 995,1 hPa 0,0 l/m 0 min 0 min 0,0 UV-I 76 W/m 2,6 km/h (1 Bft)
10.02.2014 09:42 3,9 C 3,9 C 86 % 995,1 hPa 0,0 l/m 0 min 0 min 0,0 UV-I 79 W/m 0,0 km/h (0 Bft)
10.02.2014 09:44 3,9 C 3,9 C 86 % 995,0 hPa 0,0 l/m 0 min 0 min 0,0 UV-I 84 W/m 0,0 km/h (0 Bft)
10.02.2014 09:46 3,9 C 3,9 C 86 % 995,0 hPa 0,0 l/m 0 min 0 min 0,0 UV-I 90 W/m 0,0 km/h (0 Bft)
10.02.2014 09:48 4,0 C 3,9 C 86 % 994,9 hPa 0,0 l/m 0 min 0 min 0,0 UV-I 93 W/m 0,0 km/h (0 Bft)
10.02.2014 09:50 4,1 C 4,4 C 85 % 994,9 hPa 0,0 l/m 0 min 0 min 0,0 UV-I 93 W/m 0,0 km/h (0 Bft)
10.02.2014 09:52 4,1 C 4,4 C 86 % 995,0 hPa 0,0 l/m 0 min 0 min 0,0 UV-I 93 W/m 0,0 km/h (0 Bft)
10.02.2014 09:54 4,3 C 4,4 C 86 % 995,0 hPa 0,0 l/m 0 min 0 min 0,0 UV-I 97 W/m 0,0 km/h (0 Bft)
10.02.2014 09:56 4,4 C 4,4 C 85 % 995,0 hPa 0,0 l/m 0 min 0 min 0,0 UV-I 104 W/m 7,7 km/h (2 Bft)
10.02.2014 09:58 4,6 C 4,4 C 85 % 995,0 hPa 0,0 l/m 0 min 0 min 0,0 UV-I 109 W/m 7,7 km/h (2 Bft)
10.02.2014 10:00 4,6 C 4,4 C 84 % 994,9 hPa 0,0 l/m 0 min 0 min 0,0 UV-I 114 W/m 10,3 km/h (2 Bft)
10.02.2014 10:02 4,7 C 4,4 C 84 % 995,0 hPa 0,0 l/m 0 min 0 min 0,0 UV-I 120 W/m 7,7 km/h (2 Bft)
10.02.2014 10:04 4,7 C 4,4 C 83 % 994,9 hPa 0,0 l/m 0 min 0 min 0,0 UV-I 120 W/m 12,9 km/h (3 Bft)
10.02.2014 10:06 4,8 C 4,4 C 83 % 994,9 hPa 0,0 l/m 0 min 0 min 0,0 UV-I 116 W/m 10,3 km/h (2 Bft)
10.02.2014 10:08 4,8 C 4,4 C 82 % 994,9 hPa 0,0 l/m 0 min 0 min 0,0 UV-I 107 W/m 7,7 km/h (2 Bft)
10.02.2014 10:10 4,9 C 4,4 C 82 % 994,9 hPa 0,0 l/m 0 min 0 min 0,0 UV-I 100 W/m 2,6 km/h (1 Bft)
10.02.2014 10:12 4,9 C 4,4 C 82 % 994,8 hPa 0,0 l/m 0 min 0 min 0,0 UV-I 95 W/m 5,1 km/h (1 Bft)
10.02.2014 10:14 4,9 C 4,4 C 81 % 994,8 hPa 0,0 l/m 0 min 0 min 0,0 UV-I 88 W/m 2,6 km/h (1 Bft)
10.02.2014 10:16 4,9 C 4,4 C 81 % 994,9 hPa 0,0 l/m 0 min 0 min 0,0 UV-I 84 W/m 7,7 km/h (2 Bft)
10.02.2014 10:18 4,9 C 4,4 C 81 % 994,9 hPa 0,0 l/m 0 min 0 min 0,0 UV-I 81 W/m 7,7 km/h (2 Bft)
10.02.2014 10:20 4,9 C 4,4 C 81 % 994,9 hPa 0,0 l/m 0 min 0 min 0,0 UV-I 77 W/m 0,0 km/h (0 Bft)
10.02.2014 10:22 5,0 C 4,4 C 81 % 994,9 hPa 0,0 l/m 0 min 0 min 0,0 UV-I 76 W/m 10,3 km/h (2 Bft)
10.02.2014 10:24 5,0 C 4,4 C 80 % 994,9 hPa 0,0 l/m 0 min 0 min 0,0 UV-I 72 W/m 10,3 km/h (2 Bft)
10.02.2014 10:26 5,0 C 4,4 C 80 % 994,9 hPa 0,0 l/m 0 min 0 min 0,0 UV-I 70 W/m 7,7 km/h (2 Bft)
10.02.2014 10:28 5,1 C 4,4 C 80 % 994,9 hPa 0,0 l/m 0 min 0 min 0,0 UV-I 70 W/m 10,3 km/h (2 Bft)
10.02.2014 10:30 5,1 C 4,4 C 80 % 994,8 hPa 0,0 l/m 0 min 0 min 0,0 UV-I 70 W/m 10,3 km/h (2 Bft)
10.02.2014 10:32 5,1 C 4,4 C 79 % 994,8 hPa 0,0 l/m 0 min 0 min 0,0 UV-I 70 W/m 10,3 km/h (2 Bft)
10.02.2014 10:34 5,2 C 4,4 C 79 % 994,7 hPa 0,0 l/m 0 min 0 min 0,0 UV-I 67 W/m 7,7 km/h (2 Bft)
10.02.2014 10:36 5,2 C 4,4 C 79 % 994,8 hPa 0,0 l/m 0 min 0 min 0,0 UV-I 63 W/m 12,9 km/h (3 Bft)
10.02.2014 10:38 5,2 C 4,4 C 78 % 994,7 hPa 0,0 l/m 0 min 0 min 0,0 UV-I 58 W/m 15,4 km/h (3 Bft)
10.02.2014 10:40 5,2 C 4,4 C 78 % 994,7 hPa 0,0 l/m 0 min 0 min 0,0 UV-I 58 W/m 20,6 km/h (4 Bft)
10.02.2014 10:42 5,2 C 4,4 C 78 % 994,8 hPa 0,0 l/m 0 min 0 min 0,0 UV-I 58 W/m 15,4 km/h (3 Bft)
10.02.2014 10:44 5,2 C 4,4 C 78 % 994,8 hPa 0,0 l/m 0 min 0 min 0,0 UV-I 58 W/m 12,9 km/h (3 Bft)
10.02.2014 10:46 5,2 C 4,4 C 78 % 994,8 hPa 0,0 l/m 0 min 0 min 0,0 UV-I 60 W/m 12,9 km/h (3 Bft)
10.02.2014 10:48 5,2 C 4,4 C 78 % 994,8 hPa 0,0 l/m 0 min 0 min 0,0 UV-I 58 W/m 10,3 km/h (2 Bft)
10.02.2014 10:50 5,2 C 4,4 C 78 % 994,8 hPa 0,0 l/m 0 min 0 min 0,0 UV-I 58 W/m 7,7 km/h (2 Bft)
10.02.2014 10:52 5,2 C 4,4 C 78 % 994,9 hPa 0,0 l/m 0 min 0 min 0,0 UV-I 62 W/m 12,9 km/h (3 Bft)
10.02.2014 10:54 5,2 C 4,4 C 78 % 994,8 hPa 0,0 l/m 0 min 0 min 0,0 UV-I 65 W/m 12,9 km/h (3 Bft)
10.02.2014 10:56 5,2 C 4,4 C 78 % 994,8 hPa 0,0 l/m 0 min 0 min 0,0 UV-I 70 W/m 10,3 km/h (2 Bft)
10.02.2014 10:58 5,1 C 4,4 C 78 % 994,8 hPa 0,0 l/m 0 min 0 min 0,0 UV-I 74 W/m 12,9 km/h (3 Bft)
10.02.2014 11:00 5,1 C 4,4 C 78 % 994,8 hPa 0,0 l/m 0 min 0 min 0,0 UV-I 77 W/m 10,3 km/h (2 Bft)
10.02.2014 11:02 5,1 C 4,4 C 78 % 994,8 hPa 0,0 l/m 0 min 0 min 0,0 UV-I 81 W/m 2,6 km/h (1 Bft)
10.02.2014 11:04 5,2 C 4,4 C 78 % 994,8 hPa 0,0 l/m 0 min 0 min 0,0 UV-I 86 W/m 7,7 km/h (2 Bft)
10.02.2014 11:06 5,2 C 4,4 C 78 % 994,7 hPa 0,0 l/m 0 min 0 min 0,0 UV-I 93 W/m 12,9 km/h (3 Bft)
10.02.2014 11:08 5,2 C 4,4 C 78 % 994,7 hPa 0,0 l/m 0 min 0 min 0,0 UV-I 97 W/m 10,3 km/h (2 Bft)
10.02.2014 11:10 5,2 C 4,4 C 78 % 994,6 hPa 0,0 l/m 0 min 0 min 0,0 UV-I 100 W/m 5,1 km/h (1 Bft)
10.02.2014 11:12 5,3 C 5,0 C 78 % 994,7 hPa 0,0 l/m 0 min 0 min 0,0 UV-I 104 W/m 12,9 km/h (3 Bft)
10.02.2014 11:14 5,3 C 5,0 C 78 % 994,6 hPa 0,0 l/m 0 min 0 min 0,0 UV-I 107 W/m 15,4 km/h (3 Bft)
10.02.2014 11:16 5,4 C 5,0 C 78 % 994,6 hPa 0,0 l/m 0 min 0 min 0,0 UV-I 109 W/m 10,3 km/h (2 Bft)
10.02.2014 11:18 5,4 C 5,0 C 77 % 994,5 hPa 0,0 l/m 0 min 0 min 0,0 UV-I 105 W/m 7,7 km/h (2 Bft)
10.02.2014 11:20 5,5 C 5,0 C 77 % 994,5 hPa 0,0 l/m 0 min 0 min 0,0 UV-I 104 W/m 10,3 km/h (2 Bft)
10.02.2014 11:22 5,6 C 5,0 C 77 % 994,4 hPa 0,0 l/m 0 min 0 min 0,0 UV-I 102 W/m 0,0 km/h (0 Bft)
10.02.2014 11:24 5,7 C 5,0 C 77 % 994,4 hPa 0,0 l/m 0 min 0 min 0,0 UV-I 97 W/m 12,9 km/h (3 Bft)
10.02.2014 11:26 5,7 C 5,0 C 76 % 994,4 hPa 0,0 l/m 0 min 0 min 0,0 UV-I 97 W/m 0,0 km/h (0 Bft)
10.02.2014 11:28 5,7 C 5,0 C 77 % 994,4 hPa 0,0 l/m 0 min 0 min 0,0 UV-I 102 W/m 5,1 km/h (1 Bft)
10.02.2014 11:30 5,8 C 5,6 C 76 % 994,4 hPa 0,0 l/m 0 min 0 min 0,0 UV-I 121 W/m 7,7 km/h (2 Bft)
10.02.2014 11:32 5,8 C 5,6 C 76 % 994,4 hPa 0,0 l/m 0 min 0 min 0,0 UV-I 135 W/m 7,7 km/h (2 Bft)
10.02.2014 11:34 5,9 C 5,6 C 76 % 994,4 hPa 0,0 l/m 0 min 0 min 0,0 UV-I 148 W/m 5,1 km/h (1 Bft)
10.02.2014 11:36 5,9 C 5,6 C 76 % 994,4 hPa 0,0 l/m 0 min 0 min 0,0 UV-I 156 W/m 0,0 km/h (0 Bft)
10.02.2014 11:38 6,1 C 6,1 C 76 % 994,3 hPa 0,0 l/m 0 min 0 min 0,0 UV-I 158 W/m 0,0 km/h (0 Bft)
10.02.2014 11:40 6,2 C 6,1 C 76 % 994,4 hPa 0,0 l/m 0 min 0 min 0,0 UV-I 155 W/m 15,4 km/h (3 Bft)
10.02.2014 11:42 6,2 C 6,1 C 76 % 994,2 hPa 0,0 l/m 0 min 0 min 0,0 UV-I 142 W/m 15,4 km/h (3 Bft)
10.02.2014 11:44 6,3 C 6,1 C 75 % 994,2 hPa 0,0 l/m 0 min 0 min 0,0 UV-I 137 W/m 5,1 km/h (1 Bft)
10.02.2014 11:46 6,4 C 6,1 C 75 % 994,2 hPa 0,0 l/m 0 min 0 min 0,0 UV-I 135 W/m 10,3 km/h (2 Bft)
10.02.2014 11:48 6,4 C 6,1 C 74 % 994,1 hPa 0,0 l/m 0 min 0 min 0,0 UV-I 142 W/m 7,7 km/h (2 Bft)
10.02.2014 11:50 6,4 C 6,1 C 73 % 994,1 hPa 0,0 l/m 0 min 0 min 0,0 UV-I 146 W/m 10,3 km/h (2 Bft)
10.02.2014 11:52 6,5 C 6,1 C 73 % 994,0 hPa 0,0 l/m 0 min 0 min 0,0 UV-I 148 W/m 2,6 km/h (1 Bft)
10.02.2014 11:54 6,5 C 6,1 C 74 % 994,1 hPa 0,0 l/m 0 min 0 min 0,0 UV-I 149 W/m 10,3 km/h (2 Bft)
10.02.2014 11:56 6,6 C 6,7 C 73 % 993,9 hPa 0,0 l/m 0 min 0 min 0,0 UV-I 151 W/m 7,7 km/h (2 Bft)
10.02.2014 11:58 6,6 C 6,1 C 73 % 993,8 hPa 0,0 l/m 0 min 0 min 0,0 UV-I 153 W/m 12,9 km/h (3 Bft)
10.02.2014 12:00 6,6 C 6,7 C 73 % 993,8 hPa 0,0 l/m 0 min 0 min 0,0 UV-I 169 W/m 12,9 km/h (3 Bft)
10.02.2014 12:02 6,7 C 6,7 C 72 % 993,7 hPa 0,0 l/m 0 min 0 min 0,0 UV-I 188 W/m 7,7 km/h (2 Bft)
10.02.2014 12:04 6,7 C 6,7 C 72 % 993,6 hPa 0,0 l/m 0 min 0 min 0,0 UV-I 206 W/m 12,9 km/h (3 Bft)
10.02.2014 12:06 6,8 C 6,7 C 72 % 993,6 hPa 0,0 l/m 0 min 0 min 0,0 UV-I 221 W/m 7,7 km/h (2 Bft)
10.02.2014 12:08 6,8 C 6,7 C 73 % 993,6 hPa 0,0 l/m 0 min 0 min 0,0 UV-I 221 W/m 2,6 km/h (1 Bft)
10.02.2014 12:10 6,9 C 7,2 C 73 % 993,6 hPa 0,0 l/m 0 min 0 min 0,0 UV-I 206 W/m 0,0 km/h (0 Bft)
10.02.2014 12:12 7,0 C 7,2 C 73 % 993,7 hPa 0,0 l/m 0 min 0 min 0,0 UV-I 162 W/m 7,7 km/h (2 Bft)
10.02.2014 12:14 7,0 C 7,2 C 73 % 993,6 hPa 0,0 l/m 0 min 0 min 0,0 UV-I 137 W/m 7,7 km/h (2 Bft)
10.02.2014 12:16 7,0 C 6,7 C 72 % 993,6 hPa 0,0 l/m 0 min 0 min 0,0 UV-I 139 W/m 7,7 km/h (2 Bft)
10.02.2014 12:18 7,0 C 6,7 C 73 % 993,6 hPa 0,0 l/m 0 min 0 min 0,0 UV-I 156 W/m 12,9 km/h (3 Bft)
10.02.2014 12:20 7,0 C 6,7 C 73 % 993,6 hPa 0,0 l/m 0 min 0 min 0,0 UV-I 183 W/m 12,9 km/h (3 Bft)
10.02.2014 12:22 7,1 C 6,7 C 72 % 993,5 hPa 0,0 l/m 0 min 0 min 0,0 UV-I 195 W/m 18,0 km/h (3 Bft)
10.02.2014 12:24 7,1 C 7,2 C 72 % 993,4 hPa 0,0 l/m 0 min 0 min 0,0 UV-I 199 W/m 12,9 km/h (3 Bft)
10.02.2014 12:26 7,2 C 7,2 C 72 % 993,4 hPa 0,0 l/m 0 min 0 min 0,0 UV-I 206 W/m 5,1 km/h (1 Bft)
10.02.2014 12:28 7,3 C 7,2 C 72 % 993,4 hPa 0,0 l/m 0 min 0 min 0,0 UV-I 211 W/m 7,7 km/h (2 Bft)
10.02.2014 12:30 7,3 C 7,2 C 71 % 993,3 hPa 0,0 l/m 0 min 0 min 0,0 UV-I 206 W/m 7,7 km/h (2 Bft)
10.02.2014 12:32 7,4 C 7,8 C 71 % 993,3 hPa 0,0 l/m 0 min 0 min 0,0 UV-I 193 W/m 20,6 km/h (4 Bft)
10.02.2014 12:34 7,4 C 7,2 C 69 % 993,2 hPa 0,0 l/m 0 min 0 min 0,0 UV-I 176 W/m 18,0 km/h (3 Bft)
10.02.2014 12:36 7,4 C 7,2 C 70 % 993,2 hPa 0,0 l/m 0 min 0 min 0,0 UV-I 160 W/m 12,9 km/h (3 Bft)
10.02.2014 12:38 7,4 C 7,2 C 69 % 993,1 hPa 0,0 l/m 0 min 0 min 0,0 UV-I 151 W/m 7,7 km/h (2 Bft)
10.02.2014 12:40 7,4 C 7,2 C 69 % 993,1 hPa 0,0 l/m 0 min 0 min 0,0 UV-I 144 W/m 7,7 km/h (2 Bft)
10.02.2014 12:42 7,3 C 7,2 C 69 % 993,1 hPa 0,0 l/m 0 min 0 min 0,0 UV-I 142 W/m 10,3 km/h (2 Bft)
10.02.2014 12:44 7,3 C 6,7 C 69 % 993,0 hPa 0,0 l/m 0 min 0 min 0,0 UV-I 144 W/m 12,9 km/h (3 Bft)
10.02.2014 12:46 7,3 C 7,2 C 69 % 993,1 hPa 0,0 l/m 0 min 0 min 0,0 UV-I 146 W/m 10,3 km/h (2 Bft)
10.02.2014 12:48 7,3 C 7,2 C 69 % 993,1 hPa 0,0 l/m 0 min 0 min 0,0 UV-I 146 W/m 12,9 km/h (3 Bft)
10.02.2014 12:50 7,3 C 7,2 C 69 % 993,1 hPa 0,0 l/m 0 min 0 min 0,0 UV-I 146 W/m 0,0 km/h (0 Bft)
10.02.2014 12:52 7,3 C 7,2 C 70 % 993,0 hPa 0,0 l/m 0 min 0 min 0,0 UV-I 148 W/m 0,0 km/h (0 Bft)
10.02.2014 12:54 7,4 C 7,2 C 70 % 993,1 hPa 0,0 l/m 0 min 0 min 0,0 UV-I 148 W/m 0,0 km/h (0 Bft)
10.02.2014 12:56 7,4 C 7,2 C 69 % 993,2 hPa 0,0 l/m 0 min 0 min 0,0 UV-I 146 W/m 0,0 km/h (0 Bft)
10.02.2014 12:58 7,5 C 7,2 C 70 % 993,2 hPa 0,0 l/m 0 min 0 min 0,0 UV-I 151 W/m 10,3 km/h (2 Bft)
10.02.2014 13:00 7,5 C 7,2 C 70 % 993,2 hPa 0,0 l/m 0 min 0 min 0,0 UV-I 158 W/m 10,3 km/h (2 Bft)
10.02.2014 13:02 7,6 C 7,2 C 69 % 993,1 hPa 0,0 l/m 0 min 0 min 0,0 UV-I 163 W/m 2,6 km/h (1 Bft)
10.02.2014 13:04 7,6 C 7,2 C 68 % 993,1 hPa 0,0 l/m 0 min 0 min 0,0 UV-I 165 W/m 20,6 km/h (4 Bft)
10.02.2014 13:06 7,7 C 7,2 C 68 % 993,1 hPa 0,0 l/m 0 min 0 min 0,0 UV-I 160 W/m 2,6 km/h (1 Bft)
10.02.2014 13:08 7,7 C 7,2 C 69 % 993,1 hPa 0,0 l/m 0 min 0 min 0,0 UV-I 156 W/m 10,3 km/h (2 Bft)
10.02.2014 13:10 7,7 C 7,2 C 68 % 993,1 hPa 0,0 l/m 0 min 0 min 0,0 UV-I 174 W/m 5,1 km/h (1 Bft)
10.02.2014 13:12 7,7 C 7,8 C 68 % 993,0 hPa 0,0 l/m 0 min 0 min 0,0 UV-I 186 W/m 12,9 km/h (3 Bft)
10.02.2014 13:14 7,8 C 7,8 C 67 % 993,1 hPa 0,0 l/m 0 min 0 min 0,0 UV-I 200 W/m 12,9 km/h (3 Bft)
10.02.2014 13:16 7,8 C 7,8 C 67 % 993,1 hPa 0,0 l/m 0 min 0 min 0,0 UV-I 216 W/m 12,9 km/h (3 Bft)
10.02.2014 13:18 7,9 C 7,8 C 67 % 993,1 hPa 0,0 l/m 0 min 0 min 0,0 UV-I 216 W/m 10,3 km/h (2 Bft)
10.02.2014 13:20 7,9 C 7,8 C 67 % 993,0 hPa 0,0 l/m 0 min 0 min 0,0 UV-I 218 W/m 18,0 km/h (3 Bft)
10.02.2014 13:22 8,0 C 7,8 C 67 % 993,0 hPa 0,0 l/m 2 min 0 min 0,0 UV-I 237 W/m 15,4 km/h (3 Bft)
10.02.2014 13:24 8,1 C 8,3 C 67 % 992,9 hPa 0,0 l/m 2 min 0 min 0,0 UV-I 244 W/m 7,7 km/h (2 Bft)
10.02.2014 13:26 8,2 C 8,3 C 68 % 992,9 hPa 0,0 l/m 2 min 0 min 0,0 UV-I 251 W/m 15,4 km/h (3 Bft)
10.02.2014 13:28 8,3 C 8,3 C 67 % 992,8 hPa 0,0 l/m 2 min 0 min 0,0 UV-I 241 W/m 5,1 km/h (1 Bft)
10.02.2014 13:30 8,3 C 8,3 C 68 % 992,8 hPa 0,0 l/m 0 min 0 min 0,0 UV-I 216 W/m 10,3 km/h (2 Bft)
10.02.2014 13:32 8,4 C 8,3 C 67 % 992,8 hPa 0,0 l/m 0 min 0 min 0,0 UV-I 193 W/m 5,1 km/h (1 Bft)
10.02.2014 13:34 8,4 C 8,3 C 67 % 992,8 hPa 0,0 l/m 0 min 0 min 0,0 UV-I 165 W/m 12,9 km/h (3 Bft)
10.02.2014 13:36 8,4 C 8,3 C 64 % 992,9 hPa 0,0 l/m 0 min 0 min 0,0 UV-I 148 W/m 25,7 km/h (4 Bft)
10.02.2014 13:38 8,3 C 7,8 C 63 % 992,8 hPa 0,0 l/m 0 min 0 min 0,0 UV-I 132 W/m 15,4 km/h (3 Bft)
10.02.2014 13:40 8,3 C 7,8 C 63 % 992,8 hPa 0,0 l/m 0 min 0 min 0,0 UV-I 121 W/m 20,6 km/h (4 Bft)
10.02.2014 13:42 8,2 C 7,8 C 63 % 992,8 hPa 0,0 l/m 0 min 0 min 0,0 UV-I 113 W/m 12,9 km/h (3 Bft)
10.02.2014 13:44 8,2 C 7,2 C 63 % 992,8 hPa 0,0 l/m 0 min 0 min 0,0 UV-I 109 W/m 30,9 km/h (5 Bft)
10.02.2014 13:46 8,2 C 7,2 C 63 % 992,8 hPa 0,0 l/m 0 min 0 min 0,0 UV-I 120 W/m 15,4 km/h (3 Bft)
10.02.2014 13:48 8,1 C 7,2 C 64 % 992,8 hPa 0,0 l/m 0 min 0 min 0,0 UV-I 128 W/m 12,9 km/h (3 Bft)
10.02.2014 13:50 8,1 C 7,2 C 63 % 992,8 hPa 0,0 l/m 0 min 0 min 0,0 UV-I 137 W/m 20,6 km/h (4 Bft)
10.02.2014 13:52 8,1 C 7,2 C 62 % 992,8 hPa 0,0 l/m 0 min 0 min 0,0 UV-I 135 W/m 25,7 km/h (4 Bft)
10.02.2014 13:54 8,1 C 7,2 C 63 % 992,8 hPa 0,0 l/m 0 min 0 min 0,0 UV-I 132 W/m 20,6 km/h (4 Bft)
10.02.2014 13:56 8,1 C 7,8 C 63 % 992,7 hPa 0,0 l/m 0 min 0 min 0,0 UV-I 128 W/m 12,9 km/h (3 Bft)
10.02.2014 13:58 8,1 C 7,8 C 63 % 992,7 hPa 0,0 l/m 0 min 0 min 0,0 UV-I 123 W/m 10,3 km/h (2 Bft)
10.02.2014 14:00 8,1 C 7,8 C 64 % 992,8 hPa 0,0 l/m 0 min 0 min 0,0 UV-I 116 W/m 18,0 km/h (3 Bft)
10.02.2014 14:02 8,1 C 7,2 C 64 % 992,8 hPa 0,0 l/m 0 min 0 min 0,0 UV-I 113 W/m 25,7 km/h (4 Bft)
10.02.2014 14:04 8,1 C 7,2 C 63 % 992,7 hPa 0,0 l/m 0 min 0 min 0,0 UV-I 111 W/m 18,0 km/h (3 Bft)
10.02.2014 14:06 8,0 C 7,2 C 63 % 992,8 hPa 0,0 l/m 0 min 0 min 0,0 UV-I 105 W/m 5,1 km/h (1 Bft)
10.02.2014 14:08 8,0 C 7,2 C 63 % 992,7 hPa 0,0 l/m 0 min 0 min 0,0 UV-I 93 W/m 12,9 km/h (3 Bft)
10.02.2014 14:10 7,9 C 7,2 C 63 % 992,7 hPa 0,0 l/m 0 min 0 min 0,0 UV-I 90 W/m 12,9 km/h (3 Bft)
10.02.2014 14:12 7,9 C 7,2 C 63 % 992,7 hPa 0,0 l/m 0 min 0 min 0,0 UV-I 90 W/m 15,4 km/h (3 Bft)
10.02.2014 14:14 7,9 C 7,2 C 63 % 992,7 hPa 0,0 l/m 0 min 0 min 0,0 UV-I 98 W/m 20,6 km/h (4 Bft)
10.02.2014 14:16 7,8 C 7,2 C 63 % 992,7 hPa 0,0 l/m 0 min 0 min 0,0 UV-I 105 W/m 12,9 km/h (3 Bft)
10.02.2014 14:18 7,8 C 7,2 C 63 % 992,7 hPa 0,0 l/m 0 min 0 min 0,0 UV-I 111 W/m 12,9 km/h (3 Bft)
10.02.2014 14:20 7,8 C 7,2 C 62 % 992,7 hPa 0,0 l/m 0 min 0 min 0,0 UV-I 114 W/m 18,0 km/h (3 Bft)
10.02.2014 14:22 7,8 C 7,2 C 62 % 992,7 hPa 0,0 l/m 0 min 0 min 0,0 UV-I 113 W/m 25,7 km/h (4 Bft)
10.02.2014 14:24 7,8 C 7,2 C 61 % 992,7 hPa 0,0 l/m 0 min 0 min 0,0 UV-I 111 W/m 18,0 km/h (3 Bft)
10.02.2014 14:26 7,8 C 7,2 C 62 % 992,6 hPa 0,0 l/m 0 min 0 min 0,0 UV-I 111 W/m 10,3 km/h (2 Bft)
10.02.2014 14:28 7,8 C 7,2 C 62 % 992,6 hPa 0,0 l/m 0 min 0 min 0,0 UV-I 111 W/m 5,1 km/h (1 Bft)
10.02.2014 14:30 7,8 C 7,2 C 63 % 992,5 hPa 0,0 l/m 0 min 0 min 0,0 UV-I 107 W/m 7,7 km/h (2 Bft)
10.02.2014 14:32 7,8 C 7,2 C 63 % 992,5 hPa 0,0 l/m 0 min 0 min 0,0 UV-I 102 W/m 10,3 km/h (2 Bft)
10.02.2014 14:34 7,8 C 7,2 C 63 % 992,5 hPa 0,0 l/m 0 min 0 min 0,0 UV-I 98 W/m 15,4 km/h (3 Bft)
10.02.2014 14:36 7,7 C 7,2 C 62 % 992,5 hPa 0,0 l/m 0 min 0 min 0,0 UV-I 98 W/m 10,3 km/h (2 Bft)
10.02.2014 14:38 7,7 C 7,2 C 62 % 992,5 hPa 0,0 l/m 0 min 0 min 0,0 UV-I 98 W/m 12,9 km/h (3 Bft)
10.02.2014 14:40 7,7 C 7,2 C 62 % 992,6 hPa 0,0 l/m 0 min 0 min 0,0 UV-I 100 W/m 20,6 km/h (4 Bft)
10.02.2014 14:42 7,7 C 7,2 C 62 % 992,5 hPa 0,0 l/m 0 min 0 min 0,0 UV-I 102 W/m 7,7 km/h (2 Bft)
10.02.2014 14:44 7,7 C 7,2 C 63 % 992,5 hPa 0,0 l/m 0 min 0 min 0,0 UV-I 104 W/m 12,9 km/h (3 Bft)
10.02.2014 14:46 7,7 C 7,2 C 62 % 992,5 hPa 0,0 l/m 0 min 0 min 0,0 UV-I 102 W/m 18,0 km/h (3 Bft)
10.02.2014 14:48 7,7 C 7,2 C 63 % 992,6 hPa 0,0 l/m 0 min 0 min 0,0 UV-I 102 W/m 15,4 km/h (3 Bft)
10.02.2014 14:50 7,7 C 7,2 C 63 % 992,6 hPa 0,0 l/m 0 min 0 min 0,0 UV-I 100 W/m 15,4 km/h (3 Bft)
10.02.2014 14:52 7,7 C 7,2 C 63 % 992,6 hPa 0,0 l/m 0 min 0 min 0,0 UV-I 100 W/m 18,0 km/h (3 Bft)
10.02.2014 14:54 7,7 C 7,2 C 63 % 992,6 hPa 0,0 l/m 0 min 0 min 0,0 UV-I 100 W/m 15,4 km/h (3 Bft)
10.02.2014 14:56 7,7 C 6,7 C 63 % 992,5 hPa 0,0 l/m 0 min 0 min 0,0 UV-I 98 W/m 12,9 km/h (3 Bft)
10.02.2014 14:58 7,6 C 6,7 C 63 % 992,6 hPa 0,0 l/m 0 min 0 min 0,0 UV-I 97 W/m 15,4 km/h (3 Bft)
10.02.2014 15:00 7,7 C 6,7 C 64 % 992,6 hPa 0,0 l/m 0 min 0 min 0,0 UV-I 93 W/m 10,3 km/h (2 Bft)
10.02.2014 15:02 7,6 C 6,7 C 64 % 992,6 hPa 0,0 l/m 0 min 0 min 0,0 UV-I 93 W/m 10,3 km/h (2 Bft)
10.02.2014 15:04 7,6 C 7,2 C 64 % 992,5 hPa 0,0 l/m 0 min 0 min 0,0 UV-I 95 W/m 10,3 km/h (2 Bft)
10.02.2014 15:06 7,6 C 7,2 C 65 % 992,5 hPa 0,0 l/m 0 min 0 min 0,0 UV-I 100 W/m 7,7 km/h (2 Bft)
10.02.2014 15:08 7,6 C 7,2 C 65 % 992,5 hPa 0,0 l/m 0 min 0 min 0,0 UV-I 104 W/m 2,6 km/h (1 Bft)
10.02.2014 15:10 7,7 C 7,2 C 64 % 992,5 hPa 0,0 l/m 0 min 0 min 0,0 UV-I 107 W/m 12,9 km/h (3 Bft)
10.02.2014 15:12 7,6 C 7,2 C 64 % 992,4 hPa 0,0 l/m 0 min 0 min 0,0 UV-I 109 W/m 7,7 km/h (2 Bft)
10.02.2014 15:14 7,6 C 7,2 C 64 % 992,5 hPa 0,0 l/m 0 min 0 min 0,0 UV-I 107 W/m 10,3 km/h (2 Bft)
10.02.2014 15:16 7,7 C 7,2 C 65 % 992,5 hPa 0,0 l/m 0 min 0 min 0,0 UV-I 105 W/m 10,3 km/h (2 Bft)
10.02.2014 15:18 7,7 C 7,2 C 64 % 992,5 hPa 0,0 l/m 0 min 0 min 0,0 UV-I 104 W/m 10,3 km/h (2 Bft)
10.02.2014 15:20 7,7 C 7,2 C 64 % 992,5 hPa 0,0 l/m 0 min 0 min 0,0 UV-I 104 W/m 5,1 km/h (1 Bft)
10.02.2014 15:22 7,7 C 7,2 C 65 % 992,5 hPa 0,0 l/m 0 min 0 min 0,0 UV-I 107 W/m 7,7 km/h (2 Bft)
10.02.2014 15:24 7,7 C 7,2 C 65 % 992,4 hPa 0,0 l/m 0 min 0 min 0,0 UV-I 111 W/m 10,3 km/h (2 Bft)
10.02.2014 15:26 7,6 C 7,2 C 64 % 992,4 hPa 0,0 l/m 0 min 0 min 0,0 UV-I 114 W/m 20,6 km/h (4 Bft)
10.02.2014 15:28 7,6 C 7,2 C 64 % 992,4 hPa 0,0 l/m 0 min 0 min 0,0 UV-I 120 W/m 18,0 km/h (3 Bft)
10.02.2014 15:30 7,6 C 7,2 C 64 % 992,5 hPa 0,0 l/m 0 min 0 min 0,0 UV-I 121 W/m 20,6 km/h (4 Bft)
10.02.2014 15:32 7,6 C 7,2 C 65 % 992,4 hPa 0,0 l/m 0 min 0 min 0,0 UV-I 118 W/m 7,7 km/h (2 Bft)
10.02.2014 15:34 7,6 C 7,2 C 64 % 992,5 hPa 0,0 l/m 0 min 0 min 0,0 UV-I 111 W/m 20,6 km/h (4 Bft)
10.02.2014 15:36 7,6 C 7,2 C 64 % 992,5 hPa 0,0 l/m 0 min 0 min 0,0 UV-I 100 W/m 15,4 km/h (3 Bft)
10.02.2014 15:38 7,6 C 7,2 C 65 % 992,5 hPa 0,0 l/m 0 min 0 min 0,0 UV-I 95 W/m 15,4 km/h (3 Bft)
10.02.2014 15:40 7,5 C 6,7 C 64 % 992,4 hPa 0,0 l/m 0 min 0 min 0,0 UV-I 91 W/m 15,4 km/h (3 Bft)
10.02.2014 15:42 7,5 C 6,7 C 64 % 992,4 hPa 0,0 l/m 0 min 0 min 0,0 UV-I 88 W/m 10,3 km/h (2 Bft)
10.02.2014 15:44 7,4 C 6,7 C 64 % 992,5 hPa 0,0 l/m 0 min 0 min 0,0 UV-I 88 W/m 12,9 km/h (3 Bft)
10.02.2014 15:46 7,4 C 6,7 C 64 % 992,5 hPa 0,0 l/m 0 min 0 min 0,0 UV-I 86 W/m 12,9 km/h (3 Bft)
10.02.2014 15:48 7,4 C 6,7 C 65 % 992,6 hPa 0,0 l/m 0 min 0 min 0,0 UV-I 79 W/m 12,9 km/h (3 Bft)
10.02.2014 15:50 7,4 C 6,7 C 64 % 992,6 hPa 0,0 l/m 0 min 0 min 0,0 UV-I 76 W/m 15,4 km/h (3 Bft)
10.02.2014 15:52 7,4 C 6,7 C 65 % 992,5 hPa 0,0 l/m 0 min 0 min 0,0 UV-I 70 W/m 15,4 km/h (3 Bft)
10.02.2014 15:54 7,3 C 6,7 C 65 % 992,6 hPa 0,0 l/m 0 min 0 min 0,0 UV-I 67 W/m 12,9 km/h (3 Bft)
10.02.2014 15:56 7,3 C 6,7 C 65 % 992,6 hPa 0,0 l/m 0 min 0 min 0,0 UV-I 65 W/m 12,9 km/h (3 Bft)
10.02.2014 15:58 7,3 C 6,7 C 66 % 992,6 hPa 0,0 l/m 0 min 0 min 0,0 UV-I 65 W/m 10,3 km/h (2 Bft)
10.02.2014 16:00 7,3 C 6,7 C 66 % 992,5 hPa 0,0 l/m 0 min 0 min 0,0 UV-I 65 W/m 5,1 km/h (1 Bft)
10.02.2014 16:02 7,3 C 6,7 C 65 % 992,5 hPa 0,0 l/m 0 min 0 min 0,0 UV-I 63 W/m 15,4 km/h (3 Bft)
10.02.2014 16:04 7,3 C 6,7 C 66 % 992,6 hPa 0,0 l/m 0 min 0 min 0,0 UV-I 63 W/m 10,3 km/h (2 Bft)
10.02.2014 16:06 7,3 C 6,7 C 66 % 992,6 hPa 0,0 l/m 0 min 0 min 0,0 UV-I 62 W/m 10,3 km/h (2 Bft)
10.02.2014 16:08 7,2 C 6,1 C 66 % 992,5 hPa 0,0 l/m 0 min 0 min 0,0 UV-I 60 W/m 10,3 km/h (2 Bft)
10.02.2014 16:10 7,2 C 6,1 C 66 % 992,6 hPa 0,0 l/m 0 min 0 min 0,0 UV-I 56 W/m 7,7 km/h (2 Bft)
10.02.2014 16:12 7,2 C 6,1 C 66 % 992,6 hPa 0,0 l/m 0 min 0 min 0,0 UV-I 49 W/m 2,6 km/h (1 Bft)
10.02.2014 16:14 7,2 C 6,1 C 66 % 992,6 hPa 0,0 l/m 0 min 0 min 0,0 UV-I 44 W/m 0,0 km/h (0 Bft)
10.02.2014 16:16 7,2 C 6,1 C 66 % 992,7 hPa 0,0 l/m 0 min 0 min 0,0 UV-I 40 W/m 2,6 km/h (1 Bft)
10.02.2014 16:18 7,2 C 6,1 C 66 % 992,7 hPa 0,0 l/m 0 min 0 min 0,0 UV-I 37 W/m 0,0 km/h (0 Bft)
10.02.2014 16:20 7,2 C 6,1 C 67 % 992,7 hPa 0,0 l/m 0 min 0 min 0,0 UV-I 35 W/m 0,0 km/h (0 Bft)
10.02.2014 16:22 7,2 C 6,1 C 67 % 992,7 hPa 0,0 l/m 0 min 0 min 0,0 UV-I 32 W/m 0,0 km/h (0 Bft)
10.02.2014 16:24 7,1 C 6,1 C 67 % 992,8 hPa 0,0 l/m 0 min 0 min 0,0 UV-I 32 W/m 2,6 km/h (1 Bft)
10.02.2014 16:26 7,1 C 6,1 C 68 % 992,8 hPa 0,0 l/m 0 min 0 min 0,0 UV-I 32 W/m 0,0 km/h (0 Bft)
10.02.2014 16:28 7,1 C 6,1 C 67 % 992,7 hPa 0,0 l/m 0 min 0 min 0,0 UV-I 30 W/m 0,0 km/h (0 Bft)
10.02.2014 16:30 7,1 C 5,6 C 67 % 992,8 hPa 0,0 l/m 0 min 0 min 0,0 UV-I 28 W/m 0,0 km/h (0 Bft)
10.02.2014 16:32 7,1 C 5,6 C 67 % 992,8 hPa 0,0 l/m 0 min 0 min 0,0 UV-I 26 W/m 0,0 km/h (0 Bft)
10.02.2014 16:34 7,0 C 5,6 C 67 % 992,8 hPa 0,0 l/m 0 min 0 min 0,0 UV-I 25 W/m 2,6 km/h (1 Bft)
10.02.2014 16:36 7,0 C 5,6 C 67 % 992,8 hPa 0,0 l/m 0 min 0 min 0,0 UV-I 23 W/m 0,0 km/h (0 Bft)
10.02.2014 16:38 7,0 C 5,6 C 67 % 992,8 hPa 0,0 l/m 0 min 0 min 0,0 UV-I 23 W/m 0,0 km/h (0 Bft)
10.02.2014 16:40 7,0 C 5,6 C 67 % 992,7 hPa 0,0 l/m 0 min 0 min 0,0 UV-I 23 W/m 0,0 km/h (0 Bft)
10.02.2014 16:42 7,0 C 5,6 C 67 % 992,8 hPa 0,0 l/m 0 min 0 min 0,0 UV-I 25 W/m 0,0 km/h (0 Bft)
10.02.2014 16:44 7,0 C 5,6 C 67 % 992,8 hPa 0,0 l/m 0 min 0 min 0,0 UV-I 25 W/m 0,0 km/h (0 Bft)
10.02.2014 16:46 7,0 C 5,6 C 67 % 992,8 hPa 0,0 l/m 0 min 0 min 0,0 UV-I 25 W/m 0,0 km/h (0 Bft)
10.02.2014 16:48 7,0 C 5,6 C 67 % 992,8 hPa 0,0 l/m 0 min 0 min 0,0 UV-I 23 W/m 2,6 km/h (1 Bft)
10.02.2014 16:50 7,0 C 5,6 C 67 % 992,9 hPa 0,0 l/m 0 min 0 min 0,0 UV-I 23 W/m 0,0 km/h (0 Bft)
10.02.2014 16:52 7,0 C 5,6 C 67 % 992,9 hPa 0,0 l/m 0 min 0 min 0,0 UV-I 21 W/m 2,6 km/h (1 Bft)
10.02.2014 16:54 7,0 C 5,6 C 67 % 992,8 hPa 0,0 l/m 0 min 0 min 0,0 UV-I 21 W/m 0,0 km/h (0 Bft)
10.02.2014 16:56 7,0 C 5,6 C 67 % 992,9 hPa 0,0 l/m 0 min 0 min 0,0 UV-I 21 W/m 2,6 km/h (1 Bft)
10.02.2014 16:58 7,0 C 5,6 C 67 % 992,9 hPa 0,0 l/m 0 min 0 min 0,0 UV-I 19 W/m 0,0 km/h (0 Bft)
10.02.2014 17:00 7,0 C 5,6 C 67 % 992,9 hPa 0,0 l/m 0 min 0 min 0,0 UV-I 19 W/m 0,0 km/h (0 Bft)
10.02.2014 17:02 7,0 C 5,6 C 67 % 992,9 hPa 0,0 l/m 0 min 0 min 0,0 UV-I 18 W/m 0,0 km/h (0 Bft)
10.02.2014 17:04 7,0 C 5,6 C 67 % 992,9 hPa 0,0 l/m 0 min 0 min 0,0 UV-I 16 W/m 0,0 km/h (0 Bft)
10.02.2014 17:06 6,9 C 5,6 C 68 % 993,0 hPa 0,0 l/m 0 min 0 min 0,0 UV-I 14 W/m 5,1 km/h (1 Bft)
10.02.2014 17:08 6,9 C 5,0 C 68 % 993,0 hPa 0,0 l/m 0 min 0 min 0,0 UV-I 14 W/m 0,0 km/h (0 Bft)
10.02.2014 17:10 6,9 C 5,0 C 68 % 993,0 hPa 0,0 l/m 0 min 0 min 0,0 UV-I 12 W/m 0,0 km/h (0 Bft)
10.02.2014 17:12 6,9 C 5,0 C 68 % 993,1 hPa 0,0 l/m 0 min 0 min 0,0 UV-I 12 W/m 0,0 km/h (0 Bft)
10.02.2014 17:14 6,9 C 5,0 C 68 % 993,0 hPa 0,0 l/m 0 min 0 min 0,0 UV-I 12 W/m 0,0 km/h (0 Bft)
10.02.2014 17:16 6,9 C 5,0 C 68 % 993,1 hPa 0,0 l/m 0 min 0 min 0,0 UV-I 12 W/m 2,6 km/h (1 Bft)
10.02.2014 17:18 6,9 C 5,0 C 68 % 993,1 hPa 0,0 l/m 0 min 0 min 0,0 UV-I 12 W/m 12,9 km/h (3 Bft)
10.02.2014 17:20 6,9 C 5,0 C 67 % 993,1 hPa 0,0 l/m 0 min 0 min 0,0 UV-I 12 W/m 18,0 km/h (3 Bft)
10.02.2014 17:22 6,8 C 5,0 C 67 % 993,2 hPa 0,0 l/m 0 min 2 min 0,0 UV-I 11 W/m 12,9 km/h (3 Bft)
10.02.2014 17:24 6,8 C 5,0 C 67 % 993,2 hPa 0,0 l/m 0 min 0 min 0,0 UV-I 9 W/m 23,2 km/h (4 Bft)
10.02.2014 17:26 6,8 C 5,0 C 67 % 993,2 hPa 0,0 l/m 0 min 0 min 0,0 UV-I 7 W/m 18,0 km/h (3 Bft)
10.02.2014 17:28 6,8 C 5,0 C 67 % 993,2 hPa 0,0 l/m 0 min 0 min 0,0 UV-I 7 W/m 15,4 km/h (3 Bft)
10.02.2014 17:30 6,7 C 5,0 C 68 % 993,2 hPa 0,0 l/m 0 min 2 min 0,0 UV-I 5 W/m 15,4 km/h (3 Bft)
10.02.2014 17:32 6,7 C 5,0 C 68 % 993,1 hPa 0,0 l/m 0 min 2 min 0,0 UV-I 5 W/m 10,3 km/h (2 Bft)
10.02.2014 17:34 6,7 C 4,4 C 68 % 993,2 hPa 0,0 l/m 0 min 2 min 0,0 UV-I 5 W/m 15,4 km/h (3 Bft)
10.02.2014 17:36 6,7 C 4,4 C 68 % 993,2 hPa 0,0 l/m 0 min 2 min 0,0 UV-I 0 W/m 12,9 km/h (3 Bft)
10.02.2014 17:38 6,7 C 4,4 C 69 % 993,2 hPa 0,0 l/m 0 min 2 min 0,0 UV-I 0 W/m 0,0 km/h (0 Bft)
10.02.2014 17:40 6,6 C 4,4 C 69 % 993,2 hPa 0,0 l/m 0 min 0 min 0,0 UV-I 0 W/m 0,0 km/h (0 Bft)
10.02.2014 17:42 6,6 C 4,4 C 69 % 993,2 hPa 0,0 l/m 0 min 0 min 0,0 UV-I 0 W/m 7,7 km/h (2 Bft)
10.02.2014 17:44 6,6 C 4,4 C 69 % 993,2 hPa 0,0 l/m 0 min 0 min 0,0 UV-I 0 W/m 10,3 km/h (2 Bft)
10.02.2014 17:46 6,6 C 4,4 C 69 % 993,2 hPa 0,0 l/m 0 min 0 min 0,0 UV-I 0 W/m 7,7 km/h (2 Bft)
10.02.2014 17:48 6,5 C 4,4 C 69 % 993,3 hPa 0,0 l/m 0 min 0 min 0,0 UV-I 0 W/m 0,0 km/h (0 Bft)
10.02.2014 17:50 6,5 C 4,4 C 69 % 993,3 hPa 0,0 l/m 0 min 0 min 0,0 UV-I 0 W/m 2,6 km/h (1 Bft)
10.02.2014 17:52 6,5 C 4,4 C 69 % 993,3 hPa 0,0 l/m 0 min 0 min 0,0 UV-I 0 W/m 0,0 km/h (0 Bft)
10.02.2014 17:54 6,4 C 4,4 C 69 % 993,4 hPa 0,0 l/m 0 min 0 min 0,0 UV-I 0 W/m 0,0 km/h (0 Bft)
10.02.2014 17:56 6,4 C 4,4 C 69 % 993,4 hPa 0,0 l/m 0 min 0 min 0,0 UV-I 0 W/m 0,0 km/h (0 Bft)
10.02.2014 17:58 6,4 C 4,4 C 69 % 993,4 hPa 0,0 l/m 0 min 0 min 0,0 UV-I 0 W/m 0,0 km/h (0 Bft)
10.02.2014 18:00 6,4 C 4,4 C 69 % 993,4 hPa 0,0 l/m 0 min 0 min 0,0 UV-I 0 W/m 0,0 km/h (0 Bft)
10.02.2014 18:02 6,4 C 4,4 C 69 % 993,5 hPa 0,0 l/m 0 min 0 min 0,0 UV-I 0 W/m 0,0 km/h (0 Bft)
10.02.2014 18:04 6,4 C 4,4 C 69 % 993,5 hPa 0,0 l/m 0 min 0 min 0,0 UV-I 0 W/m 0,0 km/h (0 Bft)
10.02.2014 18:06 6,4 C 4,4 C 69 % 993,5 hPa 0,0 l/m 0 min 0 min 0,0 UV-I 0 W/m 5,1 km/h (1 Bft)
10.02.2014 18:08 6,3 C 4,4 C 69 % 993,5 hPa 0,0 l/m 0 min 0 min 0,0 UV-I 0 W/m 0,0 km/h (0 Bft)
10.02.2014 18:10 6,3 C 4,4 C 69 % 993,5 hPa 0,0 l/m 0 min 0 min 0,0 UV-I 0 W/m 0,0 km/h (0 Bft)
10.02.2014 18:12 6,3 C 4,4 C 70 % 993,6 hPa 0,0 l/m 0 min 0 min 0,0 UV-I 0 W/m 10,3 km/h (2 Bft)
10.02.2014 18:14 6,2 C 4,4 C 71 % 993,7 hPa 0,0 l/m 0 min 0 min 0,0 UV-I 0 W/m 0,0 km/h (0 Bft)
10.02.2014 18:16 6,2 C 4,4 C 71 % 993,6 hPa 0,0 l/m 0 min 0 min 0,0 UV-I 0 W/m 0,0 km/h (0 Bft)
10.02.2014 18:18 6,2 C 4,4 C 71 % 993,6 hPa 0,0 l/m 0 min 0 min 0,0 UV-I 0 W/m 10,3 km/h (2 Bft)
10.02.2014 18:20 6,2 C 4,4 C 72 % 993,7 hPa 0,0 l/m 0 min 0 min 0,0 UV-I 0 W/m 7,7 km/h (2 Bft)
10.02.2014 18:22 6,1 C 4,4 C 72 % 993,7 hPa 0,0 l/m 0 min 0 min 0,0 UV-I 0 W/m 5,1 km/h (1 Bft)
10.02.2014 18:24 6,1 C 3,9 C 72 % 993,8 hPa 0,0 l/m 0 min 0 min 0,0 UV-I 0 W/m 5,1 km/h (1 Bft)
10.02.2014 18:26 6,1 C 3,9 C 73 % 993,9 hPa 0,0 l/m 0 min 0 min 0,0 UV-I 0 W/m 15,4 km/h (3 Bft)
10.02.2014 18:28 6,0 C 3,9 C 73 % 993,9 hPa 0,0 l/m 0 min 0 min 0,0 UV-I 0 W/m 7,7 km/h (2 Bft)
10.02.2014 18:30 5,9 C 3,9 C 74 % 993,9 hPa 0,0 l/m 0 min 0 min 0,0 UV-I 0 W/m 10,3 km/h (2 Bft)
10.02.2014 18:32 5,8 C 3,9 C 74 % 993,9 hPa 0,0 l/m 0 min 0 min 0,0 UV-I 0 W/m 7,7 km/h (2 Bft)
10.02.2014 18:34 5,8 C 3,9 C 75 % 994,0 hPa 0,0 l/m 0 min 0 min 0,0 UV-I 0 W/m 5,1 km/h (1 Bft)
10.02.2014 18:36 5,8 C 3,9 C 75 % 994,0 hPa 0,0 l/m 0 min 0 min 0,0 UV-I 0 W/m 2,6 km/h (1 Bft)
10.02.2014 18:38 5,7 C 3,9 C 75 % 994,0 hPa 0,0 l/m 0 min 0 min 0,0 UV-I 0 W/m 7,7 km/h (2 Bft)
10.02.2014 18:40 5,7 C 3,9 C 76 % 994,0 hPa 0,0 l/m 0 min 0 min 0,0 UV-I 0 W/m 2,6 km/h (1 Bft)
10.02.2014 18:42 5,6 C 3,9 C 76 % 994,1 hPa 0,0 l/m 0 min 0 min 0,0 UV-I 0 W/m 2,6 km/h (1 Bft)
10.02.2014 18:44 5,6 C 3,9 C 76 % 994,1 hPa 0,0 l/m 0 min 0 min 0,0 UV-I 0 W/m 7,7 km/h (2 Bft)
10.02.2014 18:46 5,5 C 3,9 C 77 % 994,1 hPa 0,0 l/m 0 min 0 min 0,0 UV-I 0 W/m 15,4 km/h (3 Bft)
10.02.2014 18:48 5,5 C 3,9 C 77 % 994,1 hPa 0,0 l/m 0 min 0 min 0,0 UV-I 0 W/m 7,7 km/h (2 Bft)
10.02.2014 18:50 5,4 C 3,9 C 77 % 994,2 hPa 0,0 l/m 0 min 0 min 0,0 UV-I 0 W/m 5,1 km/h (1 Bft)
10.02.2014 18:52 5,4 C 3,9 C 78 % 994,3 hPa 0,0 l/m 0 min 0 min 0,0 UV-I 0 W/m 7,7 km/h (2 Bft)
10.02.2014 18:54 5,3 C 3,9 C 78 % 994,2 hPa 0,0 l/m 0 min 0 min 0,0 UV-I 0 W/m 7,7 km/h (2 Bft)
10.02.2014 18:56 5,3 C 3,9 C 78 % 994,2 hPa 0,0 l/m 0 min 0 min 0,0 UV-I 0 W/m 0,0 km/h (0 Bft)
10.02.2014 18:58 5,3 C 3,9 C 79 % 994,3 hPa 0,0 l/m 0 min 0 min 0,0 UV-I 0 W/m 10,3 km/h (2 Bft)
10.02.2014 19:00 5,2 C 3,9 C 79 % 994,3 hPa 0,0 l/m 0 min 0 min 0,0 UV-I 0 W/m 7,7 km/h (2 Bft)
10.02.2014 19:02 5,2 C 3,9 C 79 % 994,5 hPa 0,0 l/m 0 min 0 min 0,0 UV-I 0 W/m 0,0 km/h (0 Bft)
10.02.2014 19:04 5,2 C 3,3 C 79 % 994,5 hPa 0,0 l/m 0 min 0 min 0,0 UV-I 0 W/m 0,0 km/h (0 Bft)
10.02.2014 19:06 5,1 C 3,3 C 79 % 994,5 hPa 0,0 l/m 0 min 0 min 0,0 UV-I 0 W/m 0,0 km/h (0 Bft)
10.02.2014 19:08 5,1 C 3,3 C 79 % 994,5 hPa 0,0 l/m 0 min 0 min 0,0 UV-I 0 W/m 0,0 km/h (0 Bft)
10.02.2014 19:10 5,1 C 3,3 C 80 % 994,5 hPa 0,0 l/m 0 min 0 min 0,0 UV-I 0 W/m 7,7 km/h (2 Bft)
10.02.2014 19:12 5,1 C 3,3 C 80 % 994,6 hPa 0,0 l/m 0 min 0 min 0,0 UV-I 0 W/m 0,0 km/h (0 Bft)
10.02.2014 19:14 5,0 C 3,3 C 80 % 994,6 hPa 0,0 l/m 0 min 2 min 0,0 UV-I 0 W/m 5,1 km/h (1 Bft)
10.02.2014 19:16 5,0 C 3,3 C 80 % 994,6 hPa 0,0 l/m 0 min 2 min 0,0 UV-I 0 W/m 7,7 km/h (2 Bft)
10.02.2014 19:18 5,0 C 3,3 C 80 % 994,6 hPa 0,0 l/m 0 min 2 min 0,0 UV-I 0 W/m 15,4 km/h (3 Bft)
10.02.2014 19:20 4,9 C 3,3 C 81 % 994,7 hPa 0,0 l/m 0 min 2 min 0,0 UV-I 0 W/m 5,1 km/h (1 Bft)
10.02.2014 19:22 4,9 C 3,3 C 81 % 994,7 hPa 0,0 l/m 0 min 2 min 0,0 UV-I 0 W/m 7,7 km/h (2 Bft)
10.02.2014 19:24 4,9 C 3,3 C 81 % 994,7 hPa 0,0 l/m 0 min 2 min 0,0 UV-I 0 W/m 0,0 km/h (0 Bft)
10.02.2014 19:26 4,9 C 2,8 C 81 % 994,8 hPa 0,0 l/m 0 min 2 min 0,0 UV-I 0 W/m 0,0 km/h (0 Bft)
10.02.2014 19:28 4,9 C 2,8 C 82 % 994,8 hPa 0,0 l/m 0 min 2 min 0,0 UV-I 0 W/m 5,1 km/h (1 Bft)
10.02.2014 19:30 4,9 C 2,8 C 82 % 994,8 hPa 0,0 l/m 0 min 2 min 0,0 UV-I 0 W/m 0,0 km/h (0 Bft)
10.02.2014 19:32 4,8 C 2,8 C 82 % 994,8 hPa 0,0 l/m 0 min 2 min 0,0 UV-I 0 W/m 0,0 km/h (0 Bft)
10.02.2014 19:34 4,8 C 2,8 C 82 % 994,9 hPa 0,0 l/m 0 min 2 min 0,0 UV-I 0 W/m 0,0 km/h (0 Bft)
10.02.2014 19:36 4,8 C 2,8 C 83 % 994,9 hPa 0,0 l/m 0 min 2 min 0,0 UV-I 0 W/m 2,6 km/h (1 Bft)
10.02.2014 19:38 4,8 C 2,8 C 83 % 994,9 hPa 0,0 l/m 0 min 2 min 0,0 UV-I 0 W/m 7,7 km/h (2 Bft)
10.02.2014 19:40 4,8 C 2,8 C 83 % 994,9 hPa 0,0 l/m 0 min 2 min 0,0 UV-I 0 W/m 2,6 km/h (1 Bft)
10.02.2014 19:42 4,7 C 2,8 C 84 % 994,9 hPa 0,0 l/m 0 min 2 min 0,0 UV-I 0 W/m 0,0 km/h (0 Bft)
10.02.2014 19:44 4,7 C 2,8 C 84 % 994,9 hPa 0,0 l/m 0 min 2 min 0,0 UV-I 0 W/m 0,0 km/h (0 Bft)
10.02.2014 19:46 4,7 C 2,8 C 84 % 994,9 hPa 0,0 l/m 0 min 2 min 0,0 UV-I 0 W/m 0,0 km/h (0 Bft)
10.02.2014 19:48 4,7 C 2,8 C 84 % 994,9 hPa 0,0 l/m 0 min 2 min 0,0 UV-I 0 W/m 0,0 km/h (0 Bft)
10.02.2014 19:50 4,6 C 2,2 C 85 % 995,0 hPa 0,0 l/m 0 min 2 min 0,0 UV-I 0 W/m 2,6 km/h (1 Bft)
10.02.2014 19:52 4,6 C 2,2 C 85 % 995,0 hPa 0,0 l/m 0 min 2 min 0,0 UV-I 0 W/m 0,0 km/h (0 Bft)
10.02.2014 19:54 4,6 C 2,2 C 85 % 995,0 hPa 0,2 l/m 0 min 2 min 0,0 UV-I 0 W/m 0,0 km/h (0 Bft)
10.02.2014 19:56 4,5 C 2,2 C 85 % 995,0 hPa 0,0 l/m 0 min 2 min 0,0 UV-I 0 W/m 0,0 km/h (0 Bft)
10.02.2014 19:58 4,5 C 2,2 C 86 % 995,0 hPa 0,0 l/m 0 min 2 min 0,0 UV-I 0 W/m 2,6 km/h (1 Bft)
10.02.2014 20:00 4,5 C 2,2 C 86 % 995,0 hPa 0,0 l/m 0 min 2 min 0,0 UV-I 0 W/m 0,0 km/h (0 Bft)
10.02.2014 20:02 4,4 C 2,2 C 86 % 995,0 hPa 0,0 l/m 0 min 2 min 0,0 UV-I 0 W/m 0,0 km/h (0 Bft)
10.02.2014 20:04 4,4 C 2,2 C 86 % 995,1 hPa 0,0 l/m 0 min 2 min 0,0 UV-I 0 W/m 0,0 km/h (0 Bft)
10.02.2014 20:06 4,4 C 2,2 C 87 % 995,1 hPa 0,0 l/m 0 min 2 min 0,0 UV-I 0 W/m 0,0 km/h (0 Bft)
10.02.2014 20:08 4,4 C 2,2 C 87 % 995,2 hPa 0,0 l/m 0 min 2 min 0,0 UV-I 0 W/m 0,0 km/h (0 Bft)
10.02.2014 20:10 4,3 C 2,2 C 87 % 995,2 hPa 0,0 l/m 0 min 2 min 0,0 UV-I 0 W/m 0,0 km/h (0 Bft)
10.02.2014 20:12 4,3 C 2,2 C 87 % 995,2 hPa 0,0 l/m 0 min 2 min 0,0 UV-I 0 W/m 0,0 km/h (0 Bft)
10.02.2014 20:14 4,3 C 2,2 C 87 % 995,2 hPa 0,0 l/m 0 min 2 min 0,0 UV-I 0 W/m 0,0 km/h (0 Bft)
10.02.2014 20:16 4,3 C 2,2 C 87 % 995,2 hPa 0,0 l/m 0 min 2 min 0,0 UV-I 0 W/m 0,0 km/h (0 Bft)
10.02.2014 20:18 4,3 C 2,2 C 87 % 995,3 hPa 0,0 l/m 0 min 2 min 0,0 UV-I 0 W/m 0,0 km/h (0 Bft)
10.02.2014 20:20 4,2 C 2,2 C 87 % 995,2 hPa 0,0 l/m 0 min 2 min 0,0 UV-I 0 W/m 0,0 km/h (0 Bft)
10.02.2014 20:22 4,2 C 2,2 C 88 % 995,3 hPa 0,0 l/m 0 min 2 min 0,0 UV-I 0 W/m 0,0 km/h (0 Bft)
10.02.2014 20:24 4,2 C 2,2 C 88 % 995,3 hPa 0,0 l/m 0 min 2 min 0,0 UV-I 0 W/m 0,0 km/h (0 Bft)
10.02.2014 20:26 4,2 C 2,2 C 88 % 995,3 hPa 0,0 l/m 0 min 2 min 0,0 UV-I 0 W/m 0,0 km/h (0 Bft)
10.02.2014 20:28 4,2 C 2,2 C 88 % 995,3 hPa 0,0 l/m 0 min 2 min 0,0 UV-I 0 W/m 0,0 km/h (0 Bft)
10.02.2014 20:30 4,2 C 2,2 C 88 % 995,4 hPa 0,0 l/m 0 min 2 min 0,0 UV-I 0 W/m 0,0 km/h (0 Bft)
10.02.2014 20:32 4,2 C 2,2 C 88 % 995,4 hPa 0,0 l/m 0 min 2 min 0,0 UV-I 0 W/m 0,0 km/h (0 Bft)
10.02.2014 20:34 4,1 C 2,2 C 88 % 995,4 hPa 0,0 l/m 0 min 2 min 0,0 UV-I 0 W/m 0,0 km/h (0 Bft)
10.02.2014 20:36 4,1 C 2,2 C 88 % 995,4 hPa 0,0 l/m 0 min 2 min 0,0 UV-I 0 W/m 0,0 km/h (0 Bft)
10.02.2014 20:38 4,1 C 2,2 C 88 % 995,3 hPa 0,0 l/m 0 min 2 min 0,0 UV-I 0 W/m 0,0 km/h (0 Bft)
10.02.2014 20:40 4,1 C 2,2 C 89 % 995,4 hPa 0,0 l/m 0 min 2 min 0,0 UV-I 0 W/m 0,0 km/h (0 Bft)
10.02.2014 20:42 4,1 C 2,2 C 89 % 995,4 hPa 0,0 l/m 0 min 2 min 0,0 UV-I 0 W/m 0,0 km/h (0 Bft)
10.02.2014 20:44 4,1 C 2,2 C 89 % 995,4 hPa 0,0 l/m 0 min 2 min 0,0 UV-I 0 W/m 0,0 km/h (0 Bft)
10.02.2014 20:46 4,1 C 2,2 C 89 % 995,5 hPa 0,0 l/m 0 min 2 min 0,0 UV-I 0 W/m 0,0 km/h (0 Bft)
10.02.2014 20:48 4,0 C 2,2 C 89 % 995,5 hPa 0,0 l/m 0 min 2 min 0,0 UV-I 0 W/m 0,0 km/h (0 Bft)
10.02.2014 20:50 4,0 C 2,2 C 89 % 995,5 hPa 0,0 l/m 0 min 2 min 0,0 UV-I 0 W/m 0,0 km/h (0 Bft)
10.02.2014 20:52 4,0 C 2,2 C 89 % 995,5 hPa 0,0 l/m 0 min 2 min 0,0 UV-I 0 W/m 0,0 km/h (0 Bft)
10.02.2014 20:54 4,0 C 2,2 C 89 % 995,5 hPa 0,0 l/m 0 min 2 min 0,0 UV-I 0 W/m 0,0 km/h (0 Bft)
10.02.2014 20:56 3,9 C 2,2 C 89 % 995,5 hPa 0,2 l/m 0 min 2 min 0,0 UV-I 0 W/m 0,0 km/h (0 Bft)
10.02.2014 20:58 3,9 C 2,2 C 89 % 995,5 hPa 0,0 l/m 0 min 2 min 0,0 UV-I 0 W/m 0,0 km/h (0 Bft)
10.02.2014 21:00 3,9 C 2,2 C 89 % 995,6 hPa 0,0 l/m 0 min 2 min 0,0 UV-I 0 W/m 0,0 km/h (0 Bft)
10.02.2014 21:02 3,9 C 2,2 C 90 % 995,6 hPa 0,0 l/m 0 min 2 min 0,0 UV-I 0 W/m 0,0 km/h (0 Bft)
10.02.2014 21:04 3,9 C 2,2 C 90 % 995,6 hPa 0,0 l/m 0 min 0 min 0,0 UV-I 0 W/m 0,0 km/h (0 Bft)
10.02.2014 21:06 3,9 C 2,2 C 90 % 995,6 hPa 0,0 l/m 0 min 2 min 0,0 UV-I 0 W/m 0,0 km/h (0 Bft)
10.02.2014 21:08 3,9 C 2,2 C 90 % 995,6 hPa 0,0 l/m 0 min 2 min 0,0 UV-I 0 W/m 0,0 km/h (0 Bft)
10.02.2014 21:10 3,9 C 2,2 C 90 % 995,6 hPa 0,0 l/m 0 min 2 min 0,0 UV-I 0 W/m 0,0 km/h (0 Bft)
10.02.2014 21:12 3,9 C 2,2 C 90 % 995,6 hPa 0,0 l/m 0 min 2 min 0,0 UV-I 0 W/m 0,0 km/h (0 Bft)
10.02.2014 21:14 3,9 C 2,2 C 90 % 995,6 hPa 0,0 l/m 0 min 2 min 0,0 UV-I 0 W/m 0,0 km/h (0 Bft)
10.02.2014 21:16 3,9 C 2,2 C 90 % 995,6 hPa 0,0 l/m 0 min 0 min 0,0 UV-I 0 W/m 0,0 km/h (0 Bft)
10.02.2014 21:18 3,9 C 2,2 C 90 % 995,7 hPa 0,0 l/m 0 min 2 min 0,0 UV-I 0 W/m 0,0 km/h (0 Bft)
10.02.2014 21:20 3,8 C 2,2 C 90 % 995,7 hPa 0,0 l/m 0 min 2 min 0,0 UV-I 0 W/m 0,0 km/h (0 Bft)
10.02.2014 21:22 3,8 C 2,2 C 90 % 995,7 hPa 0,0 l/m 0 min 2 min 0,0 UV-I 0 W/m 0,0 km/h (0 Bft)
10.02.2014 21:24 3,8 C 2,2 C 90 % 995,7 hPa 0,0 l/m 0 min 2 min 0,0 UV-I 0 W/m 0,0 km/h (0 Bft)
10.02.2014 21:26 3,8 C 2,2 C 90 % 995,7 hPa 0,0 l/m 0 min 2 min 0,0 UV-I 0 W/m 0,0 km/h (0 Bft)
10.02.2014 21:28 3,8 C 2,2 C 90 % 995,7 hPa 0,0 l/m 0 min 2 min 0,0 UV-I 0 W/m 0,0 km/h (0 Bft)
10.02.2014 21:30 3,8 C 2,2 C 91 % 995,8 hPa 0,0 l/m 0 min 2 min 0,0 UV-I 0 W/m 0,0 km/h (0 Bft)
10.02.2014 21:32 3,8 C 2,2 C 91 % 995,8 hPa 0,2 l/m 0 min 2 min 0,0 UV-I 0 W/m 0,0 km/h (0 Bft)
10.02.2014 21:34 3,8 C 2,2 C 91 % 995,9 hPa 0,0 l/m 0 min 2 min 0,0 UV-I 0 W/m 0,0 km/h (0 Bft)
10.02.2014 21:36 3,8 C 2,2 C 91 % 995,9 hPa 0,0 l/m 0 min 2 min 0,0 UV-I 0 W/m 0,0 km/h (0 Bft)
10.02.2014 21:38 3,8 C 2,2 C 91 % 995,9 hPa 0,0 l/m 0 min 2 min 0,0 UV-I 0 W/m 0,0 km/h (0 Bft)
10.02.2014 21:40 3,8 C 2,2 C 91 % 995,9 hPa 0,0 l/m 0 min 2 min 0,0 UV-I 0 W/m 0,0 km/h (0 Bft)
10.02.2014 21:42 3,8 C 2,2 C 91 % 996,0 hPa 0,0 l/m 0 min 2 min 0,0 UV-I 0 W/m 0,0 km/h (0 Bft)
10.02.2014 21:44 3,8 C 2,2 C 91 % 995,9 hPa 0,0 l/m 0 min 2 min 0,0 UV-I 0 W/m 0,0 km/h (0 Bft)
10.02.2014 21:46 3,8 C 2,2 C 91 % 995,9 hPa 0,0 l/m 0 min 2 min 0,0 UV-I 0 W/m 0,0 km/h (0 Bft)
10.02.2014 21:48 3,8 C 2,2 C 92 % 995,9 hPa 0,0 l/m 0 min 0 min 0,0 UV-I 0 W/m 0,0 km/h (0 Bft)
10.02.2014 21:50 3,8 C 2,2 C 92 % 995,9 hPa 0,0 l/m 0 min 0 min 0,0 UV-I 0 W/m 0,0 km/h (0 Bft)
10.02.2014 21:52 3,8 C 2,2 C 92 % 995,9 hPa 0,0 l/m 0 min 0 min 0,0 UV-I 0 W/m 0,0 km/h (0 Bft)
10.02.2014 21:54 3,8 C 2,2 C 92 % 995,9 hPa 0,0 l/m 0 min 0 min 0,0 UV-I 0 W/m 0,0 km/h (0 Bft)
10.02.2014 21:56 3,8 C 2,2 C 92 % 996,0 hPa 0,0 l/m 0 min 0 min 0,0 UV-I 0 W/m 0,0 km/h (0 Bft)
10.02.2014 21:58 3,7 C 2,2 C 92 % 996,1 hPa 0,0 l/m 0 min 0 min 0,0 UV-I 0 W/m 0,0 km/h (0 Bft)
10.02.2014 22:00 3,7 C 1,7 C 92 % 996,1 hPa 0,0 l/m 0 min 0 min 0,0 UV-I 0 W/m 0,0 km/h (0 Bft)
10.02.2014 22:02 3,7 C 1,7 C 92 % 996,1 hPa 0,0 l/m 0 min 0 min 0,0 UV-I 0 W/m 0,0 km/h (0 Bft)
10.02.2014 22:04 3,7 C 1,7 C 92 % 996,2 hPa 0,0 l/m 0 min 0 min 0,0 UV-I 0 W/m 0,0 km/h (0 Bft)
10.02.2014 22:06 3,7 C 2,2 C 92 % 996,2 hPa 0,0 l/m 0 min 0 min 0,0 UV-I 0 W/m 0,0 km/h (0 Bft)
10.02.2014 22:08 3,7 C 2,2 C 92 % 996,2 hPa 0,0 l/m 0 min 0 min 0,0 UV-I 0 W/m 0,0 km/h (0 Bft)
10.02.2014 22:10 3,7 C 2,2 C 92 % 996,3 hPa 0,0 l/m 0 min 0 min 0,0 UV-I 0 W/m 0,0 km/h (0 Bft)
10.02.2014 22:12 3,7 C 2,2 C 92 % 996,3 hPa 0,0 l/m 0 min 0 min 0,0 UV-I 0 W/m 0,0 km/h (0 Bft)
10.02.2014 22:14 3,6 C 2,2 C 92 % 996,3 hPa 0,0 l/m 0 min 0 min 0,0 UV-I 0 W/m 0,0 km/h (0 Bft)
10.02.2014 22:16 3,7 C 2,2 C 92 % 996,4 hPa 0,0 l/m 0 min 0 min 0,0 UV-I 0 W/m 0,0 km/h (0 Bft)
10.02.2014 22:18 3,6 C 2,2 C 92 % 996,3 hPa 0,0 l/m 0 min 0 min 0,0 UV-I 0 W/m 0,0 km/h (0 Bft)
10.02.2014 22:20 3,6 C 2,2 C 92 % 996,3 hPa 0,0 l/m 0 min 0 min 0,0 UV-I 0 W/m 0,0 km/h (0 Bft)
10.02.2014 22:22 3,6 C 2,2 C 92 % 996,3 hPa 0,0 l/m 0 min 0 min 0,0 UV-I 0 W/m 0,0 km/h (0 Bft)
10.02.2014 22:24 3,6 C 2,2 C 92 % 996,3 hPa 0,0 l/m 0 min 0 min 0,0 UV-I 0 W/m 0,0 km/h (0 Bft)
10.02.2014 22:26 3,6 C 2,2 C 93 % 996,3 hPa 0,0 l/m 0 min 0 min 0,0 UV-I 0 W/m 0,0 km/h (0 Bft)
10.02.2014 22:28 3,6 C 2,2 C 93 % 996,4 hPa 0,0 l/m 0 min 0 min 0,0 UV-I 0 W/m 0,0 km/h (0 Bft)
10.02.2014 22:30 3,6 C 2,2 C 93 % 996,4 hPa 0,0 l/m 0 min 0 min 0,0 UV-I 0 W/m 0,0 km/h (0 Bft)
10.02.2014 22:32 3,6 C 2,2 C 93 % 996,4 hPa 0,0 l/m 0 min 0 min 0,0 UV-I 0 W/m 0,0 km/h (0 Bft)
10.02.2014 22:34 3,6 C 2,2 C 93 % 996,3 hPa 0,0 l/m 0 min 0 min 0,0 UV-I 0 W/m 0,0 km/h (0 Bft)
10.02.2014 22:36 3,6 C 2,2 C 93 % 996,4 hPa 0,0 l/m 0 min 0 min 0,0 UV-I 0 W/m 0,0 km/h (0 Bft)
10.02.2014 22:38 3,6 C 2,2 C 93 % 996,5 hPa 0,0 l/m 0 min 0 min 0,0 UV-I 0 W/m 0,0 km/h (0 Bft)
10.02.2014 22:40 3,6 C 2,2 C 93 % 996,4 hPa 0,0 l/m 0 min 0 min 0,0 UV-I 0 W/m 0,0 km/h (0 Bft)
10.02.2014 22:42 3,6 C 2,2 C 93 % 996,5 hPa 0,0 l/m 0 min 0 min 0,0 UV-I 0 W/m 0,0 km/h (0 Bft)
10.02.2014 22:44 3,6 C 2,2 C 93 % 996,5 hPa 0,0 l/m 0 min 0 min 0,0 UV-I 0 W/m 0,0 km/h (0 Bft)
10.02.2014 22:46 3,6 C 2,2 C 93 % 996,5 hPa 0,0 l/m 0 min 0 min 0,0 UV-I 0 W/m 0,0 km/h (0 Bft)
10.02.2014 22:48 3,6 C 2,2 C 93 % 996,7 hPa 0,0 l/m 0 min 0 min 0,0 UV-I 0 W/m 5,1 km/h (1 Bft)
10.02.2014 22:50 3,6 C 2,2 C 93 % 996,7 hPa 0,0 l/m 0 min 0 min 0,0 UV-I 0 W/m 0,0 km/h (0 Bft)
10.02.2014 22:52 3,6 C 2,2 C 93 % 996,8 hPa 0,0 l/m 0 min 0 min 0,0 UV-I 0 W/m 0,0 km/h (0 Bft)
10.02.2014 22:54 3,6 C 2,2 C 93 % 996,7 hPa 0,0 l/m 0 min 0 min 0,0 UV-I 0 W/m 0,0 km/h (0 Bft)
10.02.2014 22:56 3,6 C 2,2 C 93 % 996,8 hPa 0,0 l/m 0 min 0 min 0,0 UV-I 0 W/m 0,0 km/h (0 Bft)
10.02.2014 22:58 3,6 C 2,2 C 93 % 996,8 hPa 0,0 l/m 0 min 0 min 0,0 UV-I 0 W/m 7,7 km/h (2 Bft)
10.02.2014 23:00 3,6 C 2,2 C 93 % 996,8 hPa 0,0 l/m 0 min 0 min 0,0 UV-I 0 W/m 0,0 km/h (0 Bft)
10.02.2014 23:02 3,6 C 2,2 C 94 % 996,9 hPa 0,0 l/m 0 min 0 min 0,0 UV-I 0 W/m 0,0 km/h (0 Bft)
10.02.2014 23:04 3,6 C 2,2 C 94 % 997,0 hPa 0,0 l/m 0 min 0 min 0,0 UV-I 0 W/m 5,1 km/h (1 Bft)
10.02.2014 23:06 3,6 C 2,2 C 94 % 997,0 hPa 0,0 l/m 0 min 0 min 0,0 UV-I 0 W/m 0,0 km/h (0 Bft)
10.02.2014 23:08 3,6 C 2,2 C 94 % 997,0 hPa 0,0 l/m 0 min 0 min 0,0 UV-I 0 W/m 0,0 km/h (0 Bft)
10.02.2014 23:10 3,6 C 2,2 C 94 % 997,0 hPa 0,0 l/m 0 min 0 min 0,0 UV-I 0 W/m 2,6 km/h (1 Bft)
10.02.2014 23:12 3,6 C 2,2 C 94 % 997,1 hPa 0,0 l/m 0 min 0 min 0,0 UV-I 0 W/m 0,0 km/h (0 Bft)
10.02.2014 23:14 3,6 C 2,2 C 94 % 997,0 hPa 0,0 l/m 0 min 0 min 0,0 UV-I 0 W/m 0,0 km/h (0 Bft)
10.02.2014 23:16 3,6 C 2,2 C 94 % 997,2 hPa 0,0 l/m 0 min 0 min 0,0 UV-I 0 W/m 0,0 km/h (0 Bft)
10.02.2014 23:18 3,6 C 2,2 C 94 % 997,1 hPa 0,0 l/m 0 min 0 min 0,0 UV-I 0 W/m 0,0 km/h (0 Bft)
10.02.2014 23:20 3,6 C 2,2 C 94 % 997,1 hPa 0,0 l/m 0 min 0 min 0,0 UV-I 0 W/m 0,0 km/h (0 Bft)
10.02.2014 23:22 3,7 C 2,2 C 94 % 997,1 hPa 0,0 l/m 0 min 0 min 0,0 UV-I 0 W/m 0,0 km/h (0 Bft)
10.02.2014 23:24 3,7 C 2,2 C 94 % 997,1 hPa 0,0 l/m 0 min 0 min 0,0 UV-I 0 W/m 5,1 km/h (1 Bft)
10.02.2014 23:26 3,7 C 2,2 C 94 % 997,1 hPa 0,0 l/m 0 min 0 min 0,0 UV-I 0 W/m 2,6 km/h (1 Bft)
10.02.2014 23:28 3,7 C 2,2 C 94 % 997,1 hPa 0,0 l/m 0 min 0 min 0,0 UV-I 0 W/m 0,0 km/h (0 Bft)
10.02.2014 23:30 3,7 C 2,2 C 94 % 997,1 hPa 0,0 l/m 0 min 0 min 0,0 UV-I 0 W/m 0,0 km/h (0 Bft)
10.02.2014 23:32 3,7 C 2,2 C 94 % 997,2 hPa 0,0 l/m 0 min 0 min 0,0 UV-I 0 W/m 5,1 km/h (1 Bft)
10.02.2014 23:34 3,7 C 2,2 C 94 % 997,1 hPa 0,0 l/m 0 min 0 min 0,0 UV-I 0 W/m 2,6 km/h (1 Bft)
10.02.2014 23:36 3,7 C 2,2 C 94 % 997,1 hPa 0,0 l/m 0 min 0 min 0,0 UV-I 0 W/m 0,0 km/h (0 Bft)
10.02.2014 23:38 3,7 C 2,2 C 94 % 997,1 hPa 0,0 l/m 0 min 0 min 0,0 UV-I 0 W/m 0,0 km/h (0 Bft)
10.02.2014 23:40 3,7 C 2,2 C 94 % 997,1 hPa 0,0 l/m 0 min 0 min 0,0 UV-I 0 W/m 2,6 km/h (1 Bft)
10.02.2014 23:42 3,6 C 2,2 C 94 % 997,1 hPa 0,0 l/m 0 min 0 min 0,0 UV-I 0 W/m 0,0 km/h (0 Bft)
10.02.2014 23:44 3,6 C 2,2 C 94 % 997,1 hPa 0,0 l/m 0 min 0 min 0,0 UV-I 0 W/m 0,0 km/h (0 Bft)
10.02.2014 23:46 3,6 C 2,2 C 95 % 997,1 hPa 0,0 l/m 0 min 0 min 0,0 UV-I 0 W/m 0,0 km/h (0 Bft)
10.02.2014 23:48 3,6 C 2,2 C 95 % 997,1 hPa 0,0 l/m 0 min 0 min 0,0 UV-I 0 W/m 2,6 km/h (1 Bft)
10.02.2014 23:50 3,6 C 1,7 C 95 % 997,1 hPa 0,0 l/m 0 min 0 min 0,0 UV-I 0 W/m 0,0 km/h (0 Bft)
10.02.2014 23:52 3,6 C 1,7 C 95 % 997,0 hPa 0,0 l/m 0 min 0 min 0,0 UV-I 0 W/m 0,0 km/h (0 Bft)
10.02.2014 23:54 3,6 C 1,7 C 95 % 997,1 hPa 0,0 l/m 0 min 0 min 0,0 UV-I 0 W/m 0,0 km/h (0 Bft)
10.02.2014 23:56 3,5 C 1,7 C 95 % 997,2 hPa 0,0 l/m 0 min 0 min 0,0 UV-I 0 W/m 0,0 km/h (0 Bft)
10.02.2014 23:58 3,5 C 1,7 C 95 % 997,2 hPa 0,0 l/m 0 min 0 min 0,0 UV-I 0 W/m 0,0 km/h (0 Bft)
_ Min-Zeit 04:18 03:18 14:24 15:12 - - - - - 00:28
Minimum _ 2,3 C 0,6 C 61 % 992,4 hPa - - - - - 0,0 km/h (0 Bft)
_ Max-Zeit 13:32 13:24 23:46 00:50 19:54 13:22 17:22 00:00 13:26 13:44
Maximum _ 8,4 C 8,3 C 95 % 997,2 hPa 0,2 l/m 2 min 2 min 0,0 UV-I 251 W/m 30,9 km/h
O-SO (5 Bft)
Durchschnitt _ 4,8 C 3,5 C 81 % 994,9 hPa #0,6 l/m #8 min. #2:42 h 0,0 UV-I 91 W/m 7,3 km/h (2 Bft)
© 2014 W. Hausmann